| time (UTC) | temp C | wind direction | speed KPH | gust KPH | rain 1hr cm | rain 24hr cm | rain mn cm | humidity % | barometer mb |
| 20260508103004 | 12 | 160 | 3.2 | 11.3 | 0.00 | 0.36 | 0.05 | 78 | 1017.7 |
| 20260508102904 | 12 | 164 | 3.2 | 11.3 | 0.00 | 0.36 | 0.05 | 78 | 1017.7 |
| 20260508102706 | 12 | 166 | 4.8 | 11.3 | 0.00 | 0.36 | 0.05 | 78 | 1017.9 |
| 20260508102604 | 12 | 165 | 4.8 | 11.3 | 0.00 | 0.36 | 0.05 | 78 | 1017.8 |
| 20260508102505 | 12 | 166 | 3.2 | 11.3 | 0.00 | 0.38 | 0.05 | 79 | 1017.9 |
| 20260508102411 | 12 | 164 | 3.2 | 11.3 | 0.00 | 0.38 | 0.05 | 79 | 1017.9 |
| 20260508102306 | 12 | 164 | 3.2 | 11.3 | 0.00 | 0.38 | 0.05 | 79 | 1017.8 |
| 20260508102106 | 12 | 148 | 3.2 | 11.3 | 0.00 | 0.38 | 0.05 | 79 | 1017.8 |
| 20260508102004 | 12 | 117 | 1.6 | 9.7 | 0.00 | 0.38 | 0.05 | 79 | 1017.7 |
| 20260508101904 | 12 | 105 | 1.6 | 9.7 | 0.00 | 0.38 | 0.05 | 80 | 1017.7 |
| 20260508101804 | 12 | 107 | 1.6 | 9.7 | 0.00 | 0.38 | 0.05 | 80 | 1017.8 |
| 20260508101704 | 12 | 95 | 1.6 | 6.4 | 0.00 | 0.38 | 0.05 | 80 | 1017.8 |
| 20260508101606 | 12 | 108 | 1.6 | 11.3 | 0.00 | 0.38 | 0.05 | 80 | 1017.8 |
| 20260508101404 | 12 | 122 | 1.6 | 11.3 | 0.00 | 0.38 | 0.05 | 81 | 1017.7 |
| 20260508101304 | 12 | 132 | 1.6 | 11.3 | 0.00 | 0.38 | 0.05 | 81 | 1017.8 |
| 20260508101204 | 12 | 138 | 3.2 | 12.9 | 0.00 | 0.38 | 0.05 | 81 | 1017.8 |
| 20260508101111 | 12 | 140 | 3.2 | 12.9 | 0.00 | 0.38 | 0.05 | 81 | 1017.8 |
| 20260508101106 | 12 | 141 | 3.2 | 12.9 | 0.00 | 0.38 | 0.05 | 81 | 1017.8 |
| 20260508101004 | 12 | 145 | 3.2 | 12.9 | 0.00 | 0.38 | 0.05 | 81 | 1017.8 |
| 20260508100912 | 12 | 145 | 3.2 | 12.9 | 0.00 | 0.38 | 0.05 | 81 | 1017.9 |
| 20260508100804 | 11 | 143 | 1.6 | 12.9 | 0.00 | 0.38 | 0.05 | 81 | 1017.8 |
| 20260508100604 | 11 | 137 | 3.2 | 12.9 | 0.00 | 0.38 | 0.05 | 82 | 1017.7 |
| 20260508100505 | 11 | 137 | 3.2 | 12.9 | 0.00 | 0.38 | 0.05 | 82 | 1017.8 |
| 20260508100404 | 11 | 134 | 3.2 | 12.9 | 0.00 | 0.38 | 0.05 | 82 | 1017.8 |
| 20260508100304 | 11 | 129 | 3.2 | 12.9 | 0.00 | 0.38 | 0.05 | 82 | 1017.8 |
| 20260508100204 | 11 | 125 | 3.2 | 11.3 | 0.00 | 0.38 | 0.05 | 82 | 1017.8 |
| 20260508100012 | 11 | 126 | 3.2 | 11.3 | 0.00 | 0.38 | 0.05 | 82 | 1018.0 |
| 20260508100005 | 11 | 126 | 3.2 | 11.3 | 0.00 | 0.38 | 0.05 | 83 | 1018.0 |
| 20260508095904 | 11 | 129 | 3.2 | 11.3 | 0.00 | 0.38 | 0.05 | 83 | 1017.8 |
| 20260508095811 | 11 | 131 | 3.2 | 11.3 | 0.00 | 0.38 | 0.05 | 83 | 1017.7 |
| 20260508095704 | 11 | 134 | 3.2 | 9.7 | 0.00 | 0.38 | 0.05 | 83 | 1017.9 |
| 20260508095611 | 11 | 139 | 3.2 | 9.7 | 0.00 | 0.38 | 0.05 | 83 | 1017.9 |
| 20260508095505 | 11 | 137 | 1.6 | 9.7 | 0.00 | 0.38 | 0.05 | 83 | 1017.9 |
| 20260508095306 | 11 | 143 | 1.6 | 6.4 | 0.00 | 0.38 | 0.05 | 83 | 1018.0 |
| 20260508095212 | 11 | 141 | 1.6 | 6.4 | 0.00 | 0.38 | 0.05 | 83 | 1017.9 |
| 20260508095204 | 11 | 142 | 1.6 | 6.4 | 0.00 | 0.38 | 0.05 | 83 | 1017.9 |
| 20260508095105 | 11 | 133 | 3.2 | 6.4 | 0.00 | 0.38 | 0.05 | 83 | 1017.8 |
| 20260508094904 | 11 | 119 | 1.6 | 6.4 | 0.00 | 0.38 | 0.05 | 84 | 1017.8 |
| 20260508094804 | 10 | 119 | 1.6 | 6.4 | 0.00 | 0.38 | 0.05 | 84 | 1017.8 |
| 20260508094706 | 10 | 123 | 1.6 | 6.4 | 0.00 | 0.38 | 0.05 | 84 | 1017.7 |
| 20260508094606 | 10 | 119 | 3.2 | 6.4 | 0.00 | 0.38 | 0.05 | 84 | 1017.9 |
| 20260508094505 | 10 | 122 | 3.2 | 6.4 | 0.00 | 0.38 | 0.05 | 84 | 1017.7 |
| 20260508094405 | 10 | 121 | 3.2 | 6.4 | 0.00 | 0.38 | 0.05 | 84 | 1017.9 |
| 20260508094306 | 10 | 121 | 3.2 | 6.4 | 0.00 | 0.38 | 0.05 | 84 | 1017.9 |
| 20260508094204 | 10 | 121 | 1.6 | 6.4 | 0.00 | 0.38 | 0.05 | 84 | 1017.7 |
| 20260508094104 | 10 | 124 | 1.6 | 6.4 | 0.00 | 0.41 | 0.05 | 84 | 1017.8 |
| 20260508094005 | 10 | 126 | 1.6 | 6.4 | 0.00 | 0.41 | 0.05 | 85 | 1017.8 |
| 20260508093905 | 10 | 126 | 1.6 | 6.4 | 0.00 | 0.41 | 0.05 | 85 | 1017.9 |
| 20260508093807 | 10 | 126 | 1.6 | 6.4 | 0.00 | 0.41 | 0.05 | 85 | 1017.9 |
| 20260508093706 | 10 | 115 | 1.6 | 6.4 | 0.00 | 0.41 | 0.05 | 85 | 1017.8 |
| 20260508093604 | 10 | 113 | 1.6 | 6.4 | 0.00 | 0.41 | 0.05 | 85 | 1017.8 |
| 20260508093505 | 10 | 108 | 1.6 | 6.4 | 0.00 | 0.41 | 0.05 | 85 | 1017.8 |
| 20260508093306 | 10 | 104 | 1.6 | 6.4 | 0.00 | 0.41 | 0.05 | 85 | 1017.8 |
| 20260508093206 | 10 | 103 | 1.6 | 6.4 | 0.00 | 0.41 | 0.05 | 85 | 1017.9 |
| 20260508093005 | 10 | 106 | 1.6 | 11.3 | 0.00 | 0.41 | 0.05 | 85 | 1017.7 |
| 20260508092905 | 10 | 107 | 3.2 | 11.3 | 0.00 | 0.41 | 0.05 | 85 | 1018.0 |
| 20260508092804 | 10 | 108 | 3.2 | 11.3 | 0.00 | 0.41 | 0.05 | 85 | 1017.7 |
| 20260508092706 | 10 | 112 | 3.2 | 11.3 | 0.00 | 0.41 | 0.05 | 85 | 1017.6 |
| 20260508092604 | 10 | 114 | 3.2 | 11.3 | 0.00 | 0.41 | 0.05 | 85 | 1017.9 |
| 20260508092504 | 10 | 113 | 3.2 | 11.3 | 0.00 | 0.41 | 0.05 | 85 | 1017.8 |
| 20260508092404 | 10 | 113 | 3.2 | 11.3 | 0.00 | 0.41 | 0.05 | 86 | 1017.9 |
| 20260508092313 | 10 | 111 | 3.2 | 11.3 | 0.00 | 0.41 | 0.05 | 86 | 1017.9 |
| 20260508092204 | 10 | 108 | 3.2 | 11.3 | 0.00 | 0.41 | 0.05 | 86 | 1018.0 |
| 20260508092012 | 10 | 100 | 3.2 | 11.3 | 0.00 | 0.41 | 0.05 | 86 | 1017.9 |
| 20260508092005 | 10 | 100 | 3.2 | 11.3 | 0.00 | 0.41 | 0.05 | 86 | 1017.9 |
| 20260508091904 | 10 | 96 | 3.2 | 11.3 | 0.00 | 0.41 | 0.05 | 86 | 1018.1 |
| 20260508091813 | 10 | 95 | 3.2 | 11.3 | 0.00 | 0.41 | 0.05 | 86 | 1018.2 |
| 20260508091712 | 10 | 87 | 3.2 | 9.7 | 0.00 | 0.41 | 0.05 | 86 | 1018.1 |
| 20260508091705 | 10 | 85 | 1.6 | 9.7 | 0.00 | 0.41 | 0.05 | 86 | 1018.1 |
| 20260508091404 | 10 | 80 | 3.2 | 4.8 | 0.00 | 0.41 | 0.05 | 86 | 1018.0 |
| 20260508091304 | 10 | 86 | 3.2 | 4.8 | 0.00 | 0.41 | 0.05 | 86 | 1018.0 |
| 20260508091205 | 9 | 93 | 3.2 | 4.8 | 0.00 | 0.41 | 0.05 | 86 | 1018.1 |
| 20260508091104 | 9 | 98 | 3.2 | 6.4 | 0.00 | 0.41 | 0.05 | 86 | 1017.8 |
| 20260508091004 | 9 | 98 | 3.2 | 6.4 | 0.00 | 0.41 | 0.05 | 87 | 1018.0 |
| 20260508090905 | 9 | 93 | 3.2 | 6.4 | 0.00 | 0.41 | 0.05 | 87 | 1018.1 |
| 20260508090804 | 9 | 93 | 3.2 | 6.4 | 0.00 | 0.43 | 0.05 | 87 | 1017.9 |
| 20260508090704 | 9 | 91 | 3.2 | 6.4 | 0.00 | 0.43 | 0.05 | 87 | 1017.9 |
| 20260508090604 | 9 | 90 | 3.2 | 6.4 | 0.00 | 0.43 | 0.05 | 87 | 1018.0 |
| 20260508090506 | 9 | 90 | 3.2 | 6.4 | 0.00 | 0.43 | 0.05 | 87 | 1018.0 |
| 20260508090406 | 9 | 86 | 3.2 | 6.4 | 0.00 | 0.43 | 0.05 | 87 | 1017.8 |
| 20260508090306 | 9 | 82 | 3.2 | 6.4 | 0.00 | 0.43 | 0.05 | 87 | 1017.9 |
| 20260508090205 | 9 | 78 | 3.2 | 6.4 | 0.00 | 0.43 | 0.05 | 87 | 1018.0 |
| 20260508090106 | 9 | 76 | 1.6 | 6.4 | 0.00 | 0.43 | 0.05 | 87 | 1018.0 |
| 20260508090005 | 9 | 78 | 1.6 | 6.4 | 0.00 | 0.43 | 0.05 | 87 | 1018.0 |
| 20260508085904 | 9 | 82 | 1.6 | 4.8 | 0.00 | 0.43 | 0.05 | 87 | 1018.0 |
| 20260508085804 | 9 | 83 | 1.6 | 4.8 | 0.00 | 0.43 | 0.05 | 87 | 1018.0 |
| 20260508085704 | 9 | 88 | 1.6 | 4.8 | 0.00 | 0.43 | 0.05 | 87 | 1017.8 |
| 20260508085506 | 9 | 87 | 1.6 | 9.7 | 0.00 | 0.43 | 0.05 | 87 | 1018.0 |
| 20260508085406 | 9 | 90 | 1.6 | 9.7 | 0.00 | 0.43 | 0.05 | 87 | 1018.0 |
| 20260508085307 | 9 | 93 | 1.6 | 9.7 | 0.00 | 0.43 | 0.05 | 87 | 1017.8 |
| 20260508085204 | 9 | 96 | 1.6 | 9.7 | 0.00 | 0.43 | 0.05 | 87 | 1017.8 |
| 20260508085104 | 9 | 99 | 3.2 | 9.7 | 0.00 | 0.43 | 0.05 | 87 | 1017.9 |
| 20260508085004 | 9 | 100 | 3.2 | 9.7 | 0.00 | 0.43 | 0.05 | 87 | 1018.0 |
| 20260508084904 | 9 | 99 | 3.2 | 9.7 | 0.00 | 0.43 | 0.05 | 87 | 1017.9 |
| 20260508084804 | 9 | 101 | 3.2 | 9.7 | 0.00 | 0.43 | 0.05 | 87 | 1018.0 |
| 20260508084706 | 9 | 102 | 3.2 | 9.7 | 0.00 | 0.43 | 0.05 | 87 | 1017.8 |
| 20260508084604 | 9 | 107 | 3.2 | 9.7 | 0.00 | 0.43 | 0.05 | 87 | 1017.9 |
| 20260508084505 | 9 | 110 | 1.6 | 9.7 | 0.00 | 0.43 | 0.05 | 87 | 1017.9 |
| 20260508084404 | 9 | 115 | 1.6 | 9.7 | 0.00 | 0.43 | 0.05 | 87 | 1018.1 |
| 20260508084304 | 9 | 115 | 1.6 | 9.7 | 0.00 | 0.43 | 0.05 | 87 | 1018.0 |
| 20260508084212 | 9 | 115 | 1.6 | 9.7 | 0.00 | 0.43 | 0.05 | 87 | 1018.0 |
| 20260508084205 | 9 | 116 | 1.6 | 9.7 | 0.00 | 0.43 | 0.05 | 87 | 1018.0 |
| 20260508083904 | 9 | 114 | 1.6 | 4.8 | 0.00 | 0.43 | 0.05 | 88 | 1018.0 |
| 20260508083804 | 9 | 102 | 1.6 | 4.8 | 0.00 | 0.43 | 0.05 | 88 | 1018.0 |
| 20260508083706 | 9 | 99 | 1.6 | 4.8 | 0.00 | 0.43 | 0.05 | 88 | 1018.0 |
| 20260508083604 | 9 | 93 | 1.6 | 4.8 | 0.00 | 0.43 | 0.05 | 88 | 1017.9 |
| 20260508083504 | 9 | 86 | 1.6 | 4.8 | 0.00 | 0.43 | 0.05 | 88 | 1017.8 |
| 20260508083404 | 9 | 79 | 1.6 | 4.8 | 0.00 | 0.43 | 0.05 | 88 | 1018.0 |
| 20260508083304 | 9 | 76 | 1.6 | 4.8 | 0.00 | 0.46 | 0.05 | 88 | 1017.9 |
| 20260508083204 | 9 | 78 | 1.6 | 4.8 | 0.00 | 0.46 | 0.05 | 88 | 1018.0 |
| 20260508083105 | 9 | 82 | 1.6 | 4.8 | 0.00 | 0.46 | 0.05 | 88 | 1017.8 |
| 20260508083005 | 9 | 83 | 1.6 | 4.8 | 0.00 | 0.46 | 0.05 | 88 | 1017.8 |
| 20260508082904 | 9 | 82 | 1.6 | 4.8 | 0.00 | 0.46 | 0.05 | 89 | 1017.8 |
| 20260508082804 | 9 | 81 | 1.6 | 6.4 | 0.00 | 0.46 | 0.05 | 89 | 1017.9 |
| 20260508082706 | 9 | 78 | 1.6 | 6.4 | 0.00 | 0.46 | 0.05 | 89 | 1017.8 |
| 20260508082604 | 9 | 83 | 1.6 | 6.4 | 0.00 | 0.46 | 0.05 | 89 | 1017.7 |
| 20260508082504 | 9 | 88 | 1.6 | 6.4 | 0.00 | 0.46 | 0.05 | 89 | 1017.9 |
| 20260508082306 | 9 | 89 | 1.6 | 6.4 | 0.00 | 0.46 | 0.05 | 89 | 1017.7 |
| 20260508082206 | 9 | 79 | 1.6 | 12.9 | 0.00 | 0.46 | 0.05 | 89 | 1017.7 |
| 20260508082106 | 9 | 77 | 3.2 | 12.9 | 0.00 | 0.46 | 0.05 | 89 | 1017.8 |
| 20260508082004 | 9 | 78 | 3.2 | 12.9 | 0.00 | 0.48 | 0.05 | 89 | 1017.8 |
| 20260508081904 | 9 | 79 | 3.2 | 12.9 | 0.00 | 0.48 | 0.05 | 89 | 1017.8 |
| 20260508081805 | 9 | 82 | 3.2 | 12.9 | 0.00 | 0.48 | 0.05 | 89 | 1017.8 |
| 20260508081706 | 9 | 82 | 3.2 | 12.9 | 0.00 | 0.48 | 0.05 | 89 | 1017.8 |
| 20260508081604 | 9 | 77 | 3.2 | 12.9 | 0.00 | 0.48 | 0.05 | 90 | 1017.8 |
| 20260508081305 | 9 | 74 | 3.2 | 12.9 | 0.00 | 0.48 | 0.05 | 90 | 1017.6 |
| 20260508081204 | 9 | 77 | 1.6 | 6.4 | 0.00 | 0.48 | 0.05 | 90 | 1017.6 |
| 20260508081104 | 9 | 76 | 1.6 | 6.4 | 0.00 | 0.48 | 0.05 | 90 | 1017.6 |
| 20260508081005 | 8 | 73 | 1.6 | 6.4 | 0.00 | 0.48 | 0.05 | 90 | 1017.6 |
| 20260508080804 | 8 | 70 | 1.6 | 4.8 | 0.00 | 0.48 | 0.05 | 90 | 1017.7 |
| 20260508080704 | 8 | 74 | 1.6 | 4.8 | 0.00 | 0.48 | 0.05 | 90 | 1017.6 |
| 20260508080512 | 8 | 81 | 1.6 | 4.8 | 0.00 | 0.48 | 0.05 | 90 | 1017.9 |
| 20260508080505 | 8 | 82 | 1.6 | 4.8 | 0.00 | 0.48 | 0.05 | 90 | 1017.9 |
| 20260508080404 | 8 | 83 | 1.6 | 4.8 | 0.00 | 0.48 | 0.05 | 90 | 1017.7 |
| 20260508080205 | 8 | 96 | 1.6 | 4.8 | 0.00 | 0.51 | 0.05 | 90 | 1017.6 |
| 20260508080104 | 8 | 96 | 1.6 | 4.8 | 0.00 | 0.51 | 0.05 | 90 | 1017.8 |
| 20260508080005 | 8 | 98 | 1.6 | 4.8 | 0.00 | 0.51 | 0.05 | 90 | 1017.8 |
| 20260508075904 | 8 | 96 | 1.6 | 6.4 | 0.00 | 0.51 | 0.05 | 90 | 1017.8 |
| 20260508075812 | 8 | 97 | 1.6 | 6.4 | 0.00 | 0.51 | 0.05 | 90 | 1017.8 |
| 20260508075805 | 8 | 97 | 1.6 | 6.4 | 0.00 | 0.51 | 0.05 | 90 | 1017.8 |
| 20260508075712 | 8 | 96 | 1.6 | 6.4 | 0.00 | 0.51 | 0.05 | 90 | 1017.7 |
| 20260508075704 | 8 | 97 | 1.6 | 6.4 | 0.00 | 0.51 | 0.05 | 90 | 1017.7 |
| 20260508075404 | 8 | 90 | 1.6 | 6.4 | 0.00 | 0.51 | 0.05 | 91 | 1017.6 |
| 20260508075308 | 8 | 88 | 1.6 | 6.4 | 0.00 | 0.51 | 0.05 | 91 | 1017.8 |
| 20260508075212 | 8 | 82 | 1.6 | 6.4 | 0.00 | 0.51 | 0.05 | 91 | 1017.7 |
| 20260508075204 | 8 | 82 | 1.6 | 6.4 | 0.00 | 0.51 | 0.05 | 91 | 1017.7 |
| 20260508075104 | 8 | 84 | 1.6 | 6.4 | 0.00 | 0.51 | 0.05 | 91 | 1017.7 |
| 20260508074904 | 8 | 84 | 1.6 | 6.4 | 0.00 | 0.51 | 0.05 | 91 | 1017.7 |
| 20260508074804 | 8 | 84 | 1.6 | 6.4 | 0.00 | 0.51 | 0.05 | 91 | 1017.6 |
| 20260508074704 | 8 | 84 | 1.6 | 6.4 | 0.00 | 0.51 | 0.05 | 91 | 1017.8 |
| 20260508074604 | 8 | 82 | 1.6 | 6.4 | 0.00 | 0.51 | 0.05 | 91 | 1017.5 |
| 20260508074404 | 8 | 84 | 1.6 | 6.4 | 0.00 | 0.51 | 0.05 | 91 | 1017.7 |
| 20260508074304 | 8 | 85 | 1.6 | 6.4 | 0.00 | 0.51 | 0.05 | 91 | 1017.5 |
| 20260508074204 | 8 | 88 | 1.6 | 4.8 | 0.00 | 0.53 | 0.05 | 91 | 1017.7 |
| 20260508074104 | 8 | 86 | 1.6 | 4.8 | 0.00 | 0.53 | 0.05 | 91 | 1017.7 |
| 20260508074004 | 8 | 87 | 1.6 | 4.8 | 0.00 | 0.53 | 0.05 | 91 | 1017.6 |
| 20260508073904 | 8 | 92 | 1.6 | 6.4 | 0.00 | 0.53 | 0.05 | 91 | 1017.6 |
| 20260508073804 | 8 | 95 | 1.6 | 6.4 | 0.00 | 0.53 | 0.05 | 91 | 1017.5 |
| 20260508073704 | 8 | 98 | 1.6 | 6.4 | 0.00 | 0.53 | 0.05 | 91 | 1017.7 |
| 20260508073604 | 8 | 98 | 1.6 | 6.4 | 0.00 | 0.53 | 0.05 | 91 | 1017.6 |
| 20260508073504 | 8 | 99 | 1.6 | 6.4 | 0.00 | 0.53 | 0.05 | 91 | 1017.5 |
| 20260508073411 | 8 | 100 | 1.6 | 6.4 | 0.00 | 0.53 | 0.05 | 91 | 1017.6 |
| 20260508073404 | 8 | 101 | 1.6 | 6.4 | 0.00 | 0.53 | 0.05 | 91 | 1017.6 |
| 20260508073304 | 8 | 101 | 1.6 | 6.4 | 0.00 | 0.53 | 0.05 | 91 | 1017.6 |
| 20260508073213 | 8 | 100 | 1.6 | 6.4 | 0.00 | 0.53 | 0.05 | 91 | 1017.7 |
| 20260508073104 | 8 | 98 | 1.6 | 6.4 | 0.00 | 0.53 | 0.05 | 91 | 1017.7 |
| 20260508072905 | 8 | 92 | 1.6 | 6.4 | 0.00 | 0.53 | 0.05 | 91 | 1017.7 |
| 20260508072804 | 8 | 87 | 1.6 | 6.4 | 0.00 | 0.53 | 0.05 | 91 | 1017.8 |
| 20260508072704 | 8 | 83 | 1.6 | 6.4 | 0.00 | 0.56 | 0.05 | 91 | 1017.6 |
| 20260508072604 | 8 | 78 | 1.6 | 6.4 | 0.00 | 0.56 | 0.05 | 91 | 1017.6 |
| 20260508072504 | 8 | 70 | 1.6 | 6.4 | 0.00 | 0.56 | 0.05 | 91 | 1017.5 |
| 20260508072404 | 8 | 63 | 1.6 | 4.8 | 0.00 | 0.56 | 0.05 | 92 | 1017.6 |
| 20260508072307 | 8 | 60 | 1.6 | 6.4 | 0.00 | 0.56 | 0.05 | 92 | 1017.5 |
| 20260508072204 | 8 | 55 | 3.2 | 6.4 | 0.00 | 0.56 | 0.05 | 92 | 1017.5 |
| 20260508072111 | 8 | 52 | 3.2 | 6.4 | 0.00 | 0.56 | 0.05 | 92 | 1017.7 |
| 20260508072104 | 8 | 52 | 3.2 | 6.4 | 0.00 | 0.56 | 0.05 | 92 | 1017.7 |
| 20260508072011 | 8 | 49 | 3.2 | 6.4 | 0.00 | 0.56 | 0.05 | 92 | 1017.4 |
| 20260508072004 | 8 | 48 | 3.2 | 6.4 | 0.00 | 0.56 | 0.05 | 92 | 1017.4 |
| 20260508071705 | 8 | 51 | 3.2 | 6.4 | 0.00 | 0.58 | 0.05 | 92 | 1017.5 |
| 20260508071604 | 8 | 51 | 3.2 | 6.4 | 0.00 | 0.58 | 0.05 | 92 | 1017.4 |
| 20260508071504 | 8 | 52 | 3.2 | 6.4 | 0.00 | 0.58 | 0.05 | 92 | 1017.4 |
| 20260508071404 | 8 | 54 | 3.2 | 6.4 | 0.00 | 0.58 | 0.05 | 92 | 1017.5 |
| 20260508071204 | 8 | 59 | 1.6 | 4.8 | 0.00 | 0.58 | 0.05 | 92 | 1017.5 |
| 20260508071104 | 8 | 63 | 1.6 | 4.8 | 0.00 | 0.61 | 0.05 | 92 | 1017.4 |
| 20260508071005 | 8 | 67 | 1.6 | 4.8 | 0.00 | 0.61 | 0.05 | 92 | 1017.6 |
| 20260508070904 | 8 | 68 | 1.6 | 4.8 | 0.00 | 0.61 | 0.05 | 92 | 1017.4 |
| 20260508070804 | 8 | 69 | 1.6 | 4.8 | 0.00 | 0.61 | 0.05 | 92 | 1017.5 |
| 20260508070704 | 8 | 70 | 1.6 | 4.8 | 0.00 | 0.61 | 0.05 | 92 | 1017.4 |
| 20260508070604 | 8 | 73 | 1.6 | 6.4 | 0.00 | 0.61 | 0.05 | 92 | 1017.4 |
| 20260508070504 | 8 | 70 | 1.6 | 9.7 | 0.00 | 0.61 | 0.05 | 92 | 1017.5 |
| 20260508070404 | 8 | 69 | 3.2 | 9.7 | 0.00 | 0.61 | 0.05 | 92 | 1017.3 |
| 20260508070304 | 8 | 68 | 3.2 | 9.7 | 0.00 | 0.64 | 0.05 | 92 | 1017.5 |
| 20260508070204 | 8 | 69 | 3.2 | 9.7 | 0.00 | 0.64 | 0.05 | 92 | 1017.5 |
| 20260508070006 | 8 | 61 | 3.2 | 9.7 | 0.00 | 0.64 | 0.05 | 92 | 1017.5 |
| 20260508065904 | 8 | 59 | 3.2 | 9.7 | 0.00 | 0.64 | 0.05 | 92 | 1017.4 |
| 20260508065811 | 8 | 56 | 3.2 | 9.7 | 0.00 | 0.66 | 0.05 | 92 | 1017.4 |
| 20260508065704 | 8 | 54 | 3.2 | 9.7 | 0.00 | 0.66 | 0.05 | 92 | 1017.4 |
| 20260508065505 | 8 | 51 | 3.2 | 6.4 | 0.00 | 0.66 | 0.05 | 92 | 1017.4 |
| 20260508065404 | 8 | 53 | 3.2 | 6.4 | 0.00 | 0.66 | 0.05 | 93 | 1017.4 |
| 20260508065307 | 8 | 53 | 3.2 | 6.4 | 0.00 | 0.66 | 0.05 | 93 | 1017.4 |
| 20260508065204 | 8 | 55 | 3.2 | 6.4 | 0.00 | 0.66 | 0.05 | 93 | 1017.5 |
| 20260508065104 | 8 | 57 | 3.2 | 6.4 | 0.00 | 0.66 | 0.05 | 93 | 1017.4 |
| 20260508065004 | 8 | 61 | 1.6 | 6.4 | 0.00 | 0.66 | 0.05 | 93 | 1017.4 |
| 20260508064904 | 8 | 64 | 1.6 | 4.8 | 0.00 | 0.69 | 0.05 | 93 | 1017.4 |
| 20260508064804 | 8 | 74 | 1.6 | 4.8 | 0.00 | 0.69 | 0.05 | 93 | 1017.3 |
| 20260508064704 | 8 | 77 | 1.6 | 4.8 | 0.00 | 0.69 | 0.05 | 93 | 1017.1 |
| 20260508064604 | 8 | 80 | 1.6 | 4.8 | 0.00 | 0.69 | 0.05 | 93 | 1017.3 |
| 20260508064504 | 8 | 87 | 1.6 | 4.8 | 0.00 | 0.69 | 0.05 | 93 | 1017.1 |
| 20260508064404 | 8 | 84 | 1.6 | 6.4 | 0.00 | 0.69 | 0.05 | 93 | 1017.1 |
| 20260508064304 | 8 | 80 | 1.6 | 6.4 | 0.00 | 0.71 | 0.05 | 93 | 1017.1 |
| 20260508064204 | 8 | 76 | 1.6 | 6.4 | 0.00 | 0.71 | 0.05 | 93 | 1017.1 |
| 20260508064111 | 8 | 69 | 1.6 | 6.4 | 0.00 | 0.71 | 0.05 | 93 | 1017.0 |
| 20260508064104 | 8 | 68 | 1.6 | 6.4 | 0.00 | 0.71 | 0.05 | 93 | 1017.0 |
| 20260508064011 | 7 | 63 | 1.6 | 6.4 | 0.00 | 0.71 | 0.05 | 93 | 1017.1 |
| 20260508064005 | 7 | 64 | 1.6 | 6.4 | 0.00 | 0.71 | 0.05 | 93 | 1017.1 |
| 20260508063911 | 7 | 63 | 1.6 | 6.4 | 0.00 | 0.74 | 0.05 | 93 | 1017.3 |
| 20260508063604 | 7 | 64 | 1.6 | 6.4 | 0.00 | 0.74 | 0.05 | 93 | 1017.1 |
| 20260508063504 | 7 | 65 | 1.6 | 6.4 | 0.00 | 0.74 | 0.05 | 93 | 1017.0 |
| 20260508063404 | 7 | 63 | 1.6 | 6.4 | 0.00 | 0.74 | 0.05 | 93 | 1017.0 |
| 20260508063305 | 7 | 67 | 1.6 | 4.8 | 0.00 | 0.74 | 0.05 | 93 | 1017.0 |
| 20260508063204 | 7 | 70 | 1.6 | 4.8 | 0.03 | 0.74 | 0.05 | 93 | 1016.9 |
| 20260508063104 | 7 | 75 | 1.6 | 4.8 | 0.03 | 0.74 | 0.05 | 93 | 1016.8 |
| 20260508063004 | 7 | 83 | 1.6 | 4.8 | 0.03 | 0.74 | 0.05 | 93 | 1016.9 |
| 20260508062904 | 7 | 86 | 1.6 | 4.8 | 0.03 | 0.74 | 0.05 | 93 | 1016.9 |
| 20260508062804 | 7 | 92 | 1.6 | 4.8 | 0.03 | 0.74 | 0.05 | 93 | 1016.9 |
| 20260508062704 | 7 | 94 | 1.6 | 4.8 | 0.03 | 0.74 | 0.05 | 93 | 1016.9 |
| 20260508062604 | 7 | 90 | 1.6 | 6.4 | 0.03 | 0.74 | 0.05 | 93 | 1017.0 |
| 20260508062505 | 7 | 84 | 1.6 | 6.4 | 0.03 | 0.74 | 0.05 | 93 | 1017.0 |
| 20260508062411 | 7 | 85 | 1.6 | 6.4 | 0.03 | 0.74 | 0.05 | 93 | 1017.0 |
| 20260508062404 | 7 | 86 | 1.6 | 6.4 | 0.03 | 0.74 | 0.05 | 93 | 1017.0 |
| 20260508062105 | 7 | 73 | 3.2 | 6.4 | 0.03 | 0.74 | 0.05 | 93 | 1016.9 |
| 20260508062005 | 7 | 68 | 3.2 | 6.4 | 0.03 | 0.74 | 0.05 | 93 | 1017.0 |
| 20260508061904 | 7 | 61 | 3.2 | 6.4 | 0.03 | 0.76 | 0.05 | 93 | 1016.8 |
| 20260508061804 | 7 | 55 | 3.2 | 6.4 | 0.03 | 0.76 | 0.05 | 93 | 1016.7 |
| 20260508061704 | 7 | 52 | 3.2 | 6.4 | 0.03 | 0.76 | 0.05 | 93 | 1016.7 |
| 20260508061604 | 7 | 49 | 3.2 | 6.4 | 0.00 | 0.76 | 0.03 | 93 | 1017.0 |
| 20260508061504 | 7 | 51 | 3.2 | 6.4 | 0.00 | 0.76 | 0.03 | 93 | 1016.7 |
| 20260508061404 | 7 | 49 | 3.2 | 6.4 | 0.00 | 0.76 | 0.03 | 93 | 1016.7 |
| 20260508061304 | 7 | 49 | 3.2 | 6.4 | 0.00 | 0.76 | 0.03 | 93 | 1016.9 |
| 20260508061204 | 7 | 49 | 3.2 | 6.4 | 0.00 | 0.76 | 0.03 | 93 | 1016.9 |
| 20260508061104 | 7 | 51 | 3.2 | 6.4 | 0.00 | 0.76 | 0.03 | 93 | 1016.8 |
| 20260508061004 | 7 | 51 | 1.6 | 6.4 | 0.00 | 0.76 | 0.03 | 93 | 1016.7 |
| 20260508060904 | 7 | 55 | 1.6 | 6.4 | 0.00 | 0.76 | 0.03 | 93 | 1016.8 |
| 20260508060811 | 7 | 57 | 1.6 | 6.4 | 0.00 | 0.76 | 0.03 | 93 | 1016.8 |
| 20260508060712 | 7 | 58 | 1.6 | 6.4 | 0.00 | 0.76 | 0.03 | 93 | 1016.7 |
| 20260508060704 | 7 | 57 | 1.6 | 4.8 | 0.00 | 0.76 | 0.03 | 93 | 1016.7 |
| 20260508060404 | 7 | 53 | 3.2 | 4.8 | 0.00 | 0.76 | 0.03 | 93 | 1016.9 |
| 20260508060304 | 7 | 53 | 3.2 | 4.8 | 0.00 | 0.76 | 0.03 | 93 | 1016.7 |
| 20260508060204 | 7 | 56 | 3.2 | 4.8 | 0.00 | 0.79 | 0.03 | 93 | 1016.8 |
| 20260508060105 | 7 | 55 | 3.2 | 4.8 | 0.00 | 0.79 | 0.03 | 93 | 1016.7 |
| 20260508060005 | 7 | 56 | 3.2 | 4.8 | 0.00 | 0.79 | 0.03 | 93 | 1016.7 |
| 20260508055911 | 7 | 56 | 3.2 | 4.8 | 0.00 | 0.79 | 0.03 | 93 | 1016.7 |
| 20260508055804 | 7 | 56 | 3.2 | 4.8 | 0.00 | 0.79 | 0.03 | 93 | 1016.7 |
| 20260508055605 | 7 | 55 | 1.6 | 4.8 | 0.00 | 0.79 | 0.03 | 93 | 1016.7 |
| 20260508055505 | 7 | 57 | 1.6 | 4.8 | 0.00 | 0.79 | 0.03 | 93 | 1016.7 |
| 20260508055404 | 7 | 58 | 1.6 | 4.8 | 0.00 | 0.79 | 0.03 | 93 | 1016.7 |
| 20260508055306 | 7 | 64 | 1.6 | 4.8 | 0.00 | 0.81 | 0.03 | 93 | 1016.6 |
| 20260508055205 | 7 | 63 | 0.0 | 4.8 | 0.00 | 0.81 | 0.03 | 93 | 1016.6 |
| 20260508055104 | 7 | 62 | 0.0 | 3.2 | 0.00 | 0.81 | 0.03 | 94 | 1016.6 |
| 20260508055004 | 7 | 76 | 0.0 | 3.2 | 0.00 | 0.81 | 0.03 | 94 | 1016.6 |
| 20260508054904 | 7 | 76 | 0.0 | 3.2 | 0.00 | 0.81 | 0.03 | 94 | 1016.8 |
| 20260508054804 | 7 | 76 | 0.0 | 3.2 | 0.00 | 0.81 | 0.03 | 94 | 1016.7 |
| 20260508054704 | 7 | 76 | 0.0 | 3.2 | 0.00 | 0.81 | 0.03 | 94 | 1016.5 |
| 20260508054604 | 7 | 76 | 0.0 | 3.2 | 0.00 | 0.81 | 0.03 | 94 | 1016.8 |
| 20260508054504 | 7 | 76 | 0.0 | 3.2 | 0.00 | 0.84 | 0.03 | 94 | 1016.7 |
| 20260508054404 | 7 | 76 | 0.0 | 3.2 | 0.00 | 0.84 | 0.03 | 94 | 1016.7 |
| 20260508054204 | 7 | 69 | 0.0 | 3.2 | 0.00 | 0.84 | 0.03 | 94 | 1016.7 |
| 20260508054104 | 7 | 72 | 0.0 | 3.2 | 0.00 | 0.84 | 0.03 | 94 | 1016.7 |
| 20260508054011 | 7 | 66 | 0.0 | 3.2 | 0.00 | 0.84 | 0.03 | 94 | 1016.5 |
| 20260508054004 | 7 | 65 | 0.0 | 3.2 | 0.00 | 0.84 | 0.03 | 94 | 1016.5 |
| 20260508053904 | 7 | 69 | 0.0 | 4.8 | 0.00 | 0.84 | 0.03 | 94 | 1016.6 |
| 20260508053811 | 7 | 76 | 0.0 | 4.8 | 0.00 | 0.84 | 0.03 | 94 | 1016.6 |
| 20260508053704 | 7 | 79 | 0.0 | 4.8 | 0.03 | 0.84 | 0.03 | 94 | 1016.7 |
| 20260508053504 | 7 | 78 | 0.0 | 4.8 | 0.03 | 0.84 | 0.03 | 94 | 1016.6 |
| 20260508053411 | 7 | 77 | 0.0 | 4.8 | 0.03 | 0.84 | 0.03 | 94 | 1016.5 |
| 20260508053404 | 7 | 77 | 0.0 | 4.8 | 0.03 | 0.84 | 0.03 | 94 | 1016.5 |
| 20260508053304 | 7 | 78 | 0.0 | 4.8 | 0.03 | 0.84 | 0.03 | 94 | 1016.6 |
| 20260508053004 | 7 | 81 | 1.6 | 4.8 | 0.00 | 0.86 | 0.03 | 94 | 1016.6 |
| 20260508052904 | 7 | 79 | 1.6 | 4.8 | 0.00 | 0.86 | 0.03 | 94 | 1016.6 |
| 20260508052804 | 7 | 77 | 1.6 | 4.8 | 0.00 | 0.86 | 0.03 | 94 | 1016.6 |
| 20260508052704 | 7 | 77 | 1.6 | 4.8 | 0.00 | 0.86 | 0.03 | 94 | 1016.6 |
| 20260508052604 | 7 | 73 | 1.6 | 4.8 | 0.00 | 0.86 | 0.03 | 94 | 1016.5 |
| 20260508052504 | 7 | 72 | 1.6 | 4.8 | 0.00 | 0.86 | 0.03 | 94 | 1016.6 |
| 20260508052404 | 7 | 70 | 1.6 | 4.8 | 0.00 | 0.86 | 0.03 | 94 | 1016.6 |
| 20260508052306 | 7 | 69 | 1.6 | 4.8 | 0.00 | 0.86 | 0.03 | 94 | 1016.5 |
| 20260508052004 | 7 | 59 | 0.0 | 4.8 | 0.00 | 0.89 | 0.03 | 94 | 1016.6 |
| 20260508051911 | 7 | 61 | 0.0 | 4.8 | 0.00 | 0.89 | 0.03 | 94 | 1016.5 |
| 20260508051904 | 7 | 62 | 0.0 | 4.8 | 0.00 | 0.89 | 0.03 | 94 | 1016.5 |
| 20260508051804 | 7 | 60 | 0.0 | 3.2 | 0.00 | 0.89 | 0.03 | 94 | 1016.6 |
| 20260508051604 | 7 | 61 | 0.0 | 3.2 | 0.00 | 0.89 | 0.03 | 94 | 1016.6 |
| 20260508051511 | 7 | 65 | 0.0 | 3.2 | 0.00 | 0.89 | 0.03 | 94 | 1016.5 |
| 20260508051504 | 7 | 66 | 0.0 | 3.2 | 0.00 | 0.89 | 0.03 | 94 | 1016.5 |
| 20260508051404 | 7 | 76 | 0.0 | 1.6 | 0.00 | 0.89 | 0.03 | 94 | 1016.3 |
| 20260508051204 | 7 | 76 | 0.0 | 1.6 | 0.00 | 0.89 | 0.03 | 94 | 1016.5 |
| 20260508051104 | 7 | 76 | 0.0 | 1.6 | 0.00 | 0.91 | 0.03 | 94 | 1016.6 |
| 20260508050904 | 7 | 76 | 0.0 | 1.6 | 0.00 | 0.91 | 0.03 | 94 | 1016.4 |
| 20260508050804 | 7 | 78 | 0.0 | 1.6 | 0.00 | 0.91 | 0.03 | 94 | 1016.4 |
| 20260508050711 | 7 | 78 | 0.0 | 1.6 | 0.00 | 0.91 | 0.03 | 94 | 1016.5 |
| 20260508050411 | 6 | 0 | 0.0 | 0.0 | 0.00 | 0.94 | 0.03 | 94 | 1016.4 |
| 20260508050404 | 6 | 0 | 0.0 | 0.0 | 0.00 | 0.94 | 0.03 | 94 | 1016.4 |
| 20260508050304 | 6 | 0 | 0.0 | 0.0 | 0.00 | 0.94 | 0.03 | 94 | 1016.5 |
| 20260508050104 | 6 | 0 | 0.0 | 0.0 | 0.00 | 0.94 | 0.03 | 94 | 1016.2 |
| 20260508050005 | 6 | 0 | 0.0 | 0.0 | 0.00 | 0.97 | 0.03 | 94 | 1016.4 |
| 20260508045904 | 6 | 0 | 0.0 | 0.0 | 0.00 | 0.97 | 0.03 | 94 | 1016.3 |
| 20260508045704 | 6 | 0 | 0.0 | 0.0 | 0.00 | 0.97 | 0.03 | 94 | 1016.2 |
| 20260508045604 | 6 | 0 | 0.0 | 0.0 | 0.00 | 0.99 | 0.03 | 94 | 1016.3 |
| 20260508045404 | 6 | 0 | 0.0 | 0.0 | 0.00 | 0.99 | 0.03 | 94 | 1016.2 |
| 20260508045307 | 6 | 0 | 0.0 | 0.0 | 0.00 | 0.99 | 0.03 | 94 | 1016.3 |
| 20260508045204 | 6 | 0 | 0.0 | 0.0 | 0.00 | 0.99 | 0.03 | 94 | 1016.4 |
| 20260508045104 | 6 | 0 | 0.0 | 0.0 | 0.00 | 0.99 | 0.03 | 94 | 1016.2 |
| 20260508045004 | 6 | 0 | 0.0 | 0.0 | 0.00 | 0.99 | 0.03 | 94 | 1016.3 |
| 20260508044904 | 6 | 0 | 0.0 | 0.0 | 0.00 | 0.99 | 0.03 | 94 | 1016.2 |
| 20260508044804 | 6 | 0 | 0.0 | 0.0 | 0.00 | 1.02 | 0.03 | 94 | 1016.2 |
| 20260508044704 | 6 | 0 | 0.0 | 0.0 | 0.00 | 1.02 | 0.03 | 94 | 1016.2 |
| 20260508044604 | 6 | 0 | 0.0 | 0.0 | 0.00 | 1.02 | 0.03 | 94 | 1016.3 |
| 20260508044504 | 6 | 0 | 0.0 | 0.0 | 0.00 | 1.02 | 0.03 | 94 | 1016.4 |
| 20260508044405 | 6 | 0 | 0.0 | 0.0 | 0.00 | 1.04 | 0.03 | 94 | 1016.2 |
| 20260508044204 | 6 | 90 | 0.0 | 3.2 | 0.00 | 1.04 | 0.03 | 94 | 1016.2 |
| 20260508044104 | 6 | 91 | 0.0 | 3.2 | 0.00 | 1.04 | 0.03 | 94 | 1016.1 |
| 20260508044004 | 6 | 91 | 0.0 | 3.2 | 0.00 | 1.04 | 0.03 | 94 | 1016.0 |
| 20260508043804 | 6 | 91 | 0.0 | 3.2 | 0.00 | 1.04 | 0.03 | 94 | 1016.1 |
| 20260508043704 | 6 | 91 | 0.0 | 3.2 | 0.00 | 1.04 | 0.00 | 94 | 1016.2 |
| 20260508043504 | 6 | 91 | 0.0 | 3.2 | 0.00 | 1.04 | 0.00 | 94 | 1016.0 |
| 20260508043404 | 6 | 91 | 0.0 | 3.2 | 0.00 | 1.04 | 0.00 | 94 | 1016.1 |
| 20260508043304 | 6 | 91 | 0.0 | 3.2 | 0.00 | 1.04 | 0.00 | 94 | 1016.0 |
| 20260508043104 | 6 | 0 | 0.0 | 0.0 | 0.00 | 1.04 | 0.00 | 94 | 1016.1 |
| 20260508043004 | 6 | 0 | 0.0 | 0.0 | 0.00 | 1.04 | 0.00 | 94 | 1016.1 |
| 20260508042904 | 6 | 0 | 0.0 | 0.0 | 0.00 | 1.04 | 0.00 | 94 | 1016.2 |
| 20260508042804 | 6 | 0 | 0.0 | 0.0 | 0.00 | 1.04 | 0.00 | 94 | 1015.9 |
| 20260508042604 | 6 | 0 | 0.0 | 0.0 | 0.00 | 1.04 | 0.00 | 94 | 1016.0 |
| 20260508042505 | 6 | 0 | 0.0 | 0.0 | 0.00 | 1.04 | 0.00 | 94 | 1016.0 |
| 20260508042404 | 6 | 0 | 0.0 | 0.0 | 0.00 | 1.04 | 0.00 | 94 | 1016.2 |
| 20260508042307 | 6 | 0 | 0.0 | 0.0 | 0.00 | 1.04 | 0.00 | 94 | 1016.1 |
| 20260508042204 | 6 | 0 | 0.0 | 0.0 | 0.00 | 1.04 | 0.00 | 94 | 1016.1 |
| 20260508042104 | 6 | 0 | 0.0 | 0.0 | 0.00 | 1.04 | 0.00 | 94 | 1016.1 |
| 20260508042005 | 6 | 0 | 0.0 | 0.0 | 0.00 | 1.07 | 0.00 | 94 | 1016.3 |
| 20260508041905 | 6 | 0 | 0.0 | 0.0 | 0.00 | 1.07 | 0.00 | 94 | 1016.1 |
| 20260508041804 | 6 | 0 | 0.0 | 0.0 | 0.00 | 1.07 | 0.00 | 94 | 1016.1 |
| 20260508041705 | 6 | 0 | 0.0 | 0.0 | 0.00 | 1.07 | 0.00 | 94 | 1016.0 |
| 20260508041605 | 6 | 0 | 0.0 | 0.0 | 0.00 | 1.07 | 0.00 | 94 | 1016.2 |
| 20260508041505 | 6 | 0 | 0.0 | 0.0 | 0.00 | 1.07 | 0.00 | 94 | 1016.2 |
| 20260508041405 | 6 | 0 | 0.0 | 0.0 | 0.00 | 1.07 | 0.00 | 94 | 1016.3 |
| 20260508041304 | 6 | 0 | 0.0 | 0.0 | 0.00 | 1.07 | 0.00 | 94 | 1016.0 |
| 20260508041204 | 6 | 0 | 0.0 | 0.0 | 0.00 | 1.07 | 0.00 | 94 | 1016.2 |
| 20260508041104 | 6 | 0 | 0.0 | 0.0 | 0.00 | 1.07 | 0.00 | 94 | 1016.2 |
| 20260508041005 | 6 | 0 | 0.0 | 0.0 | 0.00 | 1.07 | 0.00 | 94 | 1016.1 |
| 20260508040804 | 6 | 0 | 0.0 | 0.0 | 0.00 | 1.09 | 0.00 | 94 | 1016.2 |
| 20260508040704 | 6 | 0 | 0.0 | 0.0 | 0.00 | 1.09 | 0.00 | 94 | 1016.4 |
| 20260508040604 | 6 | 0 | 0.0 | 0.0 | 0.00 | 1.09 | 0.00 | 94 | 1016.1 |
| 20260508040405 | 6 | 0 | 0.0 | 0.0 | 0.00 | 1.09 | 0.00 | 94 | 1016.0 |
| 20260508040305 | 6 | 0 | 0.0 | 0.0 | 0.00 | 1.09 | 0.00 | 94 | 1016.2 |
| 20260508040204 | 6 | 0 | 0.0 | 0.0 | 0.00 | 1.09 | 0.00 | 94 | 1016.1 |
| 20260508040007 | 6 | 42 | 0.0 | 1.6 | 0.00 | 1.09 | 0.00 | 94 | 1016.0 |
| 20260508035904 | 6 | 41 | 0.0 | 3.2 | 0.00 | 1.09 | 0.00 | 94 | 1016.2 |
| 20260508035804 | 6 | 43 | 0.0 | 3.2 | 0.00 | 1.09 | 0.00 | 94 | 1016.1 |
| 20260508035706 | 6 | 44 | 0.0 | 3.2 | 0.00 | 1.09 | 0.00 | 94 | 1016.2 |
| 20260508035604 | 6 | 44 | 1.6 | 3.2 | 0.00 | 1.09 | 0.00 | 94 | 1016.0 |
| 20260508035504 | 6 | 44 | 1.6 | 3.2 | 0.00 | 1.09 | 0.00 | 94 | 1016.2 |
| 20260508035404 | 6 | 44 | 1.6 | 3.2 | 0.00 | 1.09 | 0.00 | 94 | 1016.2 |
| 20260508035306 | 6 | 44 | 1.6 | 3.2 | 0.00 | 1.09 | 0.00 | 94 | 1016.1 |
| 20260508035204 | 6 | 45 | 1.6 | 3.2 | 0.00 | 1.09 | 0.00 | 94 | 1016.1 |
| 20260508035105 | 6 | 44 | 1.6 | 3.2 | 0.00 | 1.09 | 0.00 | 94 | 1015.9 |
| 20260508035004 | 6 | 45 | 1.6 | 3.2 | 0.00 | 1.09 | 0.00 | 94 | 1016.0 |
| 20260508034804 | 6 | 45 | 1.6 | 4.8 | 0.00 | 1.09 | 0.00 | 94 | 1016.2 |
| 20260508034704 | 6 | 44 | 1.6 | 4.8 | 0.00 | 1.09 | 0.00 | 94 | 1015.9 |
| 20260508034604 | 6 | 41 | 1.6 | 4.8 | 0.00 | 1.09 | 0.00 | 94 | 1016.1 |
| 20260508034505 | 6 | 40 | 1.6 | 4.8 | 0.00 | 1.09 | 0.00 | 94 | 1016.1 |
| 20260508034404 | 6 | 40 | 1.6 | 4.8 | 0.00 | 1.09 | 0.00 | 94 | 1016.1 |
| 20260508034304 | 6 | 39 | 1.6 | 4.8 | 0.00 | 1.09 | 0.00 | 94 | 1016.0 |
| 20260508034205 | 6 | 37 | 1.6 | 4.8 | 0.00 | 1.09 | 0.00 | 94 | 1015.9 |
| 20260508034104 | 6 | 37 | 1.6 | 4.8 | 0.00 | 1.09 | 0.00 | 94 | 1016.1 |
| 20260508034011 | 6 | 36 | 1.6 | 4.8 | 0.00 | 1.09 | 0.00 | 94 | 1015.9 |
| 20260508034004 | 6 | 35 | 1.6 | 4.8 | 0.00 | 1.09 | 0.00 | 94 | 1015.9 |
| 20260508033911 | 6 | 33 | 0.0 | 4.8 | 0.00 | 1.09 | 0.00 | 94 | 1016.1 |
| 20260508033904 | 6 | 32 | 0.0 | 4.8 | 0.00 | 1.09 | 0.00 | 94 | 1016.1 |
| 20260508033604 | 6 | 0 | 0.0 | 0.0 | 0.00 | 1.09 | 0.00 | 94 | 1015.9 |
| 20260508033504 | 6 | 0 | 0.0 | 0.0 | 0.00 | 1.09 | 0.00 | 94 | 1016.1 |
| 20260508033404 | 6 | 0 | 0.0 | 0.0 | 0.00 | 1.09 | 0.00 | 94 | 1015.9 |
| 20260508033304 | 6 | 0 | 0.0 | 0.0 | 0.00 | 1.09 | 0.00 | 94 | 1015.9 |
| 20260508033211 | 6 | 360 | 0.0 | 1.6 | 0.00 | 1.09 | 0.00 | 94 | 1016.1 |
| 20260508032904 | 6 | 2 | 0.0 | 4.8 | 0.00 | 1.09 | 0.00 | 94 | 1016.0 |
| 20260508032804 | 6 | 1 | 1.6 | 4.8 | 0.00 | 1.09 | 0.00 | 94 | 1016.0 |
| 20260508032704 | 6 | 360 | 1.6 | 4.8 | 0.00 | 1.09 | 0.00 | 94 | 1016.0 |
| 20260508032604 | 6 | 359 | 1.6 | 4.8 | 0.00 | 1.09 | 0.00 | 94 | 1015.9 |
| 20260508032505 | 6 | 359 | 1.6 | 4.8 | 0.00 | 1.09 | 0.00 | 94 | 1015.9 |
| 20260508032404 | 6 | 358 | 1.6 | 4.8 | 0.00 | 1.09 | 0.00 | 94 | 1015.9 |
| 20260508032306 | 6 | 358 | 3.2 | 4.8 | 0.00 | 1.09 | 0.00 | 94 | 1016.0 |
| 20260508032204 | 6 | 358 | 3.2 | 4.8 | 0.00 | 1.09 | 0.00 | 94 | 1016.0 |
| 20260508032104 | 6 | 357 | 3.2 | 4.8 | 0.00 | 1.09 | 0.00 | 94 | 1016.0 |
| 20260508032004 | 6 | 356 | 3.2 | 4.8 | 0.00 | 1.09 | 0.00 | 94 | 1015.9 |
| 20260508031904 | 6 | 356 | 3.2 | 4.8 | 0.00 | 1.09 | 0.00 | 94 | 1015.9 |
| 20260508031804 | 6 | 355 | 3.2 | 4.8 | 0.00 | 1.09 | 0.00 | 94 | 1016.0 |
| 20260508031705 | 6 | 355 | 3.2 | 4.8 | 0.00 | 1.09 | 0.00 | 94 | 1015.9 |
| 20260508031605 | 6 | 355 | 3.2 | 4.8 | 0.00 | 1.09 | 0.00 | 94 | 1016.0 |
| 20260508031504 | 6 | 355 | 3.2 | 4.8 | 0.00 | 1.09 | 0.00 | 94 | 1016.0 |
| 20260508031404 | 6 | 355 | 3.2 | 4.8 | 0.00 | 1.09 | 0.00 | 94 | 1015.9 |
| 20260508031304 | 6 | 354 | 3.2 | 4.8 | 0.00 | 1.09 | 0.00 | 94 | 1016.0 |
| 20260508031204 | 6 | 354 | 3.2 | 4.8 | 0.00 | 1.09 | 0.00 | 94 | 1015.9 |
| 20260508031105 | 6 | 353 | 3.2 | 4.8 | 0.00 | 1.09 | 0.00 | 94 | 1016.0 |
| 20260508031004 | 6 | 352 | 3.2 | 4.8 | 0.00 | 1.09 | 0.00 | 94 | 1015.9 |
| 20260508030904 | 6 | 351 | 3.2 | 4.8 | 0.00 | 1.09 | 0.00 | 94 | 1016.0 |
| 20260508030804 | 6 | 350 | 3.2 | 4.8 | 0.00 | 1.09 | 0.00 | 94 | 1015.9 |
| 20260508030704 | 6 | 349 | 3.2 | 4.8 | 0.00 | 1.09 | 0.00 | 94 | 1016.0 |
| 20260508030604 | 6 | 348 | 3.2 | 4.8 | 0.00 | 1.12 | 0.00 | 94 | 1015.8 |
| 20260508030504 | 6 | 347 | 3.2 | 4.8 | 0.00 | 1.12 | 0.00 | 94 | 1015.7 |
| 20260508030304 | 6 | 347 | 3.2 | 4.8 | 0.00 | 1.12 | 0.00 | 94 | 1015.9 |
| 20260508030204 | 6 | 347 | 3.2 | 4.8 | 0.00 | 1.12 | 0.00 | 94 | 1015.9 |
| 20260508030104 | 6 | 348 | 3.2 | 4.8 | 0.00 | 1.12 | 0.00 | 94 | 1016.1 |
| 20260508030005 | 6 | 349 | 3.2 | 4.8 | 0.00 | 1.12 | 0.00 | 94 | 1015.9 |
| 20260508025904 | 6 | 349 | 3.2 | 4.8 | 0.00 | 1.12 | 0.00 | 94 | 1015.8 |
| 20260508025704 | 6 | 352 | 3.2 | 4.8 | 0.00 | 1.12 | 0.00 | 94 | 1015.8 |
| 20260508025604 | 6 | 356 | 3.2 | 4.8 | 0.00 | 1.12 | 0.00 | 94 | 1016.0 |
| 20260508025504 | 6 | 356 | 3.2 | 4.8 | 0.00 | 1.12 | 0.00 | 94 | 1015.9 |
| 20260508025404 | 6 | 355 | 3.2 | 4.8 | 0.00 | 1.12 | 0.00 | 94 | 1015.8 |
| 20260508025306 | 6 | 355 | 3.2 | 4.8 | 0.00 | 1.12 | 0.00 | 94 | 1015.9 |
| 20260508025204 | 6 | 355 | 3.2 | 4.8 | 0.00 | 1.12 | 0.00 | 94 | 1016.0 |
| 20260508025111 | 6 | 355 | 3.2 | 4.8 | 0.00 | 1.12 | 0.00 | 94 | 1016.0 |
| 20260508025005 | 6 | 355 | 1.6 | 4.8 | 0.00 | 1.12 | 0.00 | 94 | 1015.8 |
| 20260508024804 | 6 | 356 | 1.6 | 4.8 | 0.00 | 1.12 | 0.00 | 94 | 1016.0 |
| 20260508024704 | 6 | 356 | 1.6 | 4.8 | 0.00 | 1.12 | 0.00 | 94 | 1015.9 |
| 20260508024604 | 6 | 347 | 1.6 | 3.2 | 0.00 | 1.12 | 0.00 | 94 | 1016.0 |
| 20260508024504 | 6 | 348 | 0.0 | 3.2 | 0.00 | 1.12 | 0.00 | 94 | 1015.9 |
| 20260508024404 | 6 | 354 | 0.0 | 3.2 | 0.00 | 1.12 | 0.00 | 94 | 1015.9 |
| 20260508024304 | 6 | 0 | 0.0 | 0.0 | 0.00 | 1.12 | 0.00 | 94 | 1016.0 |
| 20260508024204 | 6 | 0 | 0.0 | 0.0 | 0.00 | 1.12 | 0.00 | 94 | 1015.9 |
| 20260508024004 | 6 | 0 | 0.0 | 0.0 | 0.00 | 1.12 | 0.00 | 94 | 1016.0 |
| 20260508023904 | 6 | 0 | 0.0 | 0.0 | 0.00 | 1.12 | 0.00 | 94 | 1015.8 |
| 20260508023804 | 6 | 0 | 0.0 | 0.0 | 0.00 | 1.12 | 0.00 | 94 | 1016.0 |
| 20260508023704 | 6 | 0 | 0.0 | 0.0 | 0.00 | 1.12 | 0.00 | 94 | 1015.7 |
| 20260508023604 | 6 | 0 | 0.0 | 0.0 | 0.00 | 1.12 | 0.00 | 94 | 1016.0 |
| 20260508023504 | 6 | 0 | 0.0 | 0.0 | 0.00 | 1.12 | 0.00 | 94 | 1015.9 |
| 20260508023404 | 6 | 0 | 0.0 | 0.0 | 0.00 | 1.12 | 0.00 | 94 | 1015.8 |
| 20260508023304 | 6 | 0 | 0.0 | 0.0 | 0.00 | 1.12 | 0.00 | 94 | 1015.8 |
| 20260508023204 | 6 | 0 | 0.0 | 0.0 | 0.00 | 1.12 | 0.00 | 94 | 1016.0 |
| 20260508023104 | 6 | 0 | 0.0 | 0.0 | 0.00 | 1.12 | 0.00 | 94 | 1016.0 |
| 20260508023004 | 6 | 0 | 0.0 | 0.0 | 0.00 | 1.12 | 0.00 | 94 | 1016.1 |
| 20260508022904 | 6 | 0 | 0.0 | 0.0 | 0.00 | 1.12 | 0.00 | 94 | 1016.0 |
| 20260508022804 | 6 | 0 | 0.0 | 0.0 | 0.00 | 1.12 | 0.00 | 94 | 1016.1 |
| 20260508022704 | 6 | 0 | 0.0 | 0.0 | 0.00 | 1.12 | 0.00 | 94 | 1016.1 |
| 20260508022604 | 6 | 0 | 0.0 | 0.0 | 0.00 | 1.12 | 0.00 | 94 | 1016.0 |
| 20260508022504 | 6 | 0 | 0.0 | 0.0 | 0.00 | 1.12 | 0.00 | 94 | 1016.1 |
| 20260508022307 | 6 | 0 | 0.0 | 0.0 | 0.00 | 1.12 | 0.00 | 94 | 1015.9 |
| 20260508022204 | 6 | 0 | 0.0 | 0.0 | 0.00 | 1.12 | 0.00 | 94 | 1016.0 |
| 20260508022104 | 6 | 0 | 0.0 | 0.0 | 0.00 | 1.12 | 0.00 | 94 | 1016.0 |
| 20260508022004 | 6 | 0 | 0.0 | 0.0 | 0.00 | 1.12 | 0.00 | 94 | 1016.0 |
| 20260508021904 | 6 | 0 | 0.0 | 0.0 | 0.00 | 1.12 | 0.00 | 94 | 1016.0 |
| 20260508021804 | 6 | 0 | 0.0 | 0.0 | 0.00 | 1.12 | 0.00 | 94 | 1016.0 |
| 20260508021606 | 6 | 0 | 0.0 | 0.0 | 0.00 | 1.12 | 0.00 | 94 | 1016.0 |
| 20260508021505 | 6 | 0 | 0.0 | 0.0 | 0.00 | 1.12 | 0.00 | 94 | 1016.0 |
| 20260508021404 | 6 | 0 | 0.0 | 0.0 | 0.00 | 1.12 | 0.00 | 94 | 1016.1 |
| 20260508021305 | 6 | 0 | 0.0 | 0.0 | 0.00 | 1.12 | 0.00 | 94 | 1016.0 |
| 20260508021204 | 6 | 0 | 0.0 | 0.0 | 0.00 | 1.12 | 0.00 | 94 | 1016.0 |
| 20260508021104 | 6 | 0 | 0.0 | 0.0 | 0.00 | 1.12 | 0.00 | 94 | 1015.9 |
| 20260508021004 | 6 | 87 | 0.0 | 3.2 | 0.00 | 1.12 | 0.00 | 94 | 1015.8 |
| 20260508020904 | 6 | 83 | 0.0 | 3.2 | 0.00 | 1.12 | 0.00 | 94 | 1016.1 |
| 20260508020804 | 6 | 83 | 0.0 | 3.2 | 0.00 | 1.12 | 0.00 | 94 | 1015.8 |
| 20260508020604 | 6 | 83 | 0.0 | 3.2 | 0.00 | 1.12 | 0.00 | 94 | 1016.0 |
| 20260508020504 | 6 | 83 | 0.0 | 3.2 | 0.00 | 1.12 | 0.00 | 94 | 1016.0 |
| 20260508020404 | 6 | 83 | 0.0 | 3.2 | 0.00 | 1.12 | 0.00 | 94 | 1016.0 |
| 20260508020204 | 6 | 83 | 0.0 | 3.2 | 0.00 | 1.12 | 0.00 | 94 | 1016.0 |
| 20260508020104 | 6 | 83 | 0.0 | 3.2 | 0.00 | 1.12 | 0.00 | 94 | 1016.0 |
| 20260508020005 | 6 | 69 | 0.0 | 1.6 | 0.00 | 1.12 | 0.00 | 94 | 1015.9 |
| 20260508015904 | 6 | 0 | 0.0 | 0.0 | 0.00 | 1.12 | 0.00 | 94 | 1016.0 |
| 20260508015804 | 6 | 0 | 0.0 | 0.0 | 0.00 | 1.12 | 0.00 | 94 | 1016.0 |
| 20260508015604 | 6 | 0 | 0.0 | 0.0 | 0.00 | 1.12 | 0.00 | 94 | 1015.8 |
| 20260508015504 | 6 | 92 | 0.0 | 1.6 | 0.00 | 1.12 | 0.00 | 94 | 1016.0 |
| 20260508015404 | 6 | 92 | 0.0 | 3.2 | 0.00 | 1.12 | 0.00 | 94 | 1015.9 |
| 20260508015306 | 6 | 93 | 0.0 | 3.2 | 0.00 | 1.12 | 0.00 | 94 | 1015.9 |
| 20260508015004 | 6 | 93 | 0.0 | 3.2 | 0.00 | 1.12 | 0.00 | 94 | 1015.9 |
| 20260508014911 | 6 | 85 | 0.0 | 3.2 | 0.00 | 1.12 | 0.00 | 94 | 1016.0 |
| 20260508014904 | 6 | 83 | 0.0 | 3.2 | 0.00 | 1.12 | 0.00 | 94 | 1016.0 |
| 20260508014811 | 6 | 75 | 0.0 | 6.4 | 0.00 | 1.12 | 0.00 | 94 | 1016.0 |
| 20260508014804 | 6 | 74 | 0.0 | 6.4 | 0.00 | 1.12 | 0.00 | 94 | 1016.0 |
| 20260508014712 | 6 | 72 | 1.6 | 6.4 | 0.00 | 1.12 | 0.00 | 94 | 1015.9 |
| 20260508014404 | 6 | 71 | 1.6 | 6.4 | 0.00 | 1.12 | 0.00 | 94 | 1015.9 |
| 20260508014304 | 6 | 67 | 1.6 | 6.4 | 0.00 | 1.12 | 0.00 | 94 | 1016.0 |
| 20260508014104 | 6 | 63 | 1.6 | 6.4 | 0.00 | 1.12 | 0.00 | 94 | 1015.9 |
| 20260508014004 | 6 | 63 | 1.6 | 6.4 | 0.00 | 1.12 | 0.00 | 94 | 1015.9 |
| 20260508013804 | 6 | 63 | 1.6 | 6.4 | 0.00 | 1.12 | 0.00 | 94 | 1015.9 |
| 20260508013704 | 6 | 61 | 1.6 | 4.8 | 0.00 | 1.12 | 0.00 | 94 | 1016.1 |
| 20260508013604 | 6 | 61 | 1.6 | 4.8 | 0.00 | 1.12 | 0.00 | 94 | 1016.0 |
| 20260508013504 | 6 | 59 | 1.6 | 4.8 | 0.00 | 1.12 | 0.00 | 94 | 1016.0 |
| 20260508013411 | 6 | 50 | 0.0 | 4.8 | 0.00 | 1.12 | 0.00 | 94 | 1015.9 |
| 20260508013304 | 6 | 41 | 0.0 | 4.8 | 0.00 | 1.12 | 0.00 | 94 | 1015.9 |
| 20260508013104 | 6 | 0 | 0.0 | 0.0 | 0.00 | 1.12 | 0.00 | 94 | 1015.9 |
| 20260508013004 | 6 | 17 | 0.0 | 1.6 | 0.00 | 1.12 | 0.00 | 94 | 1015.8 |
| 20260508012904 | 6 | 17 | 0.0 | 3.2 | 0.00 | 1.12 | 0.00 | 94 | 1015.9 |
| 20260508012811 | 6 | 17 | 0.0 | 3.2 | 0.00 | 1.12 | 0.00 | 94 | 1016.0 |
| 20260508012704 | 6 | 16 | 0.0 | 3.2 | 0.00 | 1.12 | 0.00 | 94 | 1015.8 |
| 20260508012505 | 6 | 16 | 0.0 | 3.2 | 0.00 | 1.12 | 0.00 | 94 | 1015.9 |
| 20260508012404 | 6 | 16 | 0.0 | 3.2 | 0.00 | 1.12 | 0.00 | 94 | 1016.0 |
| 20260508012307 | 6 | 16 | 0.0 | 3.2 | 0.00 | 1.12 | 0.00 | 94 | 1016.0 |
| 20260508012204 | 6 | 16 | 0.0 | 3.2 | 0.00 | 1.12 | 0.00 | 94 | 1016.0 |
| 20260508012104 | 6 | 16 | 0.0 | 3.2 | 0.00 | 1.12 | 0.00 | 94 | 1016.0 |
| 20260508012004 | 6 | 16 | 0.0 | 3.2 | 0.00 | 1.12 | 0.00 | 94 | 1016.0 |
| 20260508011904 | 6 | 16 | 0.0 | 1.6 | 0.00 | 1.12 | 0.00 | 94 | 1016.0 |
| 20260508011804 | 6 | 27 | 0.0 | 1.6 | 0.00 | 1.12 | 0.00 | 94 | 1016.1 |
| 20260508011704 | 6 | 37 | 0.0 | 3.2 | 0.00 | 1.12 | 0.00 | 94 | 1016.0 |
| 20260508011604 | 6 | 44 | 0.0 | 3.2 | 0.00 | 1.12 | 0.00 | 94 | 1015.8 |
| 20260508011505 | 6 | 53 | 0.0 | 3.2 | 0.00 | 1.14 | 0.00 | 94 | 1016.0 |
| 20260508011404 | 6 | 54 | 1.6 | 3.2 | 0.00 | 1.14 | 0.00 | 94 | 1016.1 |
| 20260508011305 | 6 | 54 | 1.6 | 3.2 | 0.00 | 1.14 | 0.00 | 94 | 1016.1 |
| 20260508011206 | 6 | 55 | 1.6 | 3.2 | 0.00 | 1.14 | 0.00 | 94 | 1015.9 |
| 20260508011104 | 6 | 57 | 1.6 | 3.2 | 0.00 | 1.14 | 0.00 | 94 | 1015.6 |
| 20260508011005 | 6 | 56 | 1.6 | 3.2 | 0.00 | 1.14 | 0.00 | 94 | 1015.9 |
| 20260508010907 | 6 | 55 | 1.6 | 3.2 | 0.00 | 1.14 | 0.00 | 94 | 1016.0 |
| 20260508010804 | 6 | 54 | 1.6 | 3.2 | 0.00 | 1.17 | 0.00 | 94 | 1016.0 |
| 20260508010705 | 6 | 54 | 1.6 | 3.2 | 0.00 | 1.17 | 0.00 | 94 | 1015.7 |
| 20260508010604 | 6 | 53 | 1.6 | 3.2 | 0.00 | 1.19 | 0.00 | 94 | 1016.0 |
| 20260508010509 | 6 | 53 | 1.6 | 3.2 | 0.00 | 1.24 | 0.00 | 94 | 1016.1 |
| 20260508010406 | 6 | 52 | 1.6 | 3.2 | 0.00 | 1.24 | 0.00 | 94 | 1016.0 |
| 20260508010304 | 6 | 53 | 1.6 | 3.2 | 0.00 | 1.30 | 0.00 | 94 | 1015.9 |
| 20260508010204 | 6 | 51 | 1.6 | 3.2 | 0.00 | 1.30 | 0.00 | 94 | 1015.9 |
| 20260508010005 | 6 | 50 | 1.6 | 4.8 | 0.00 | 1.30 | 0.00 | 94 | 1015.9 |
| 20260508005904 | 6 | 50 | 1.6 | 4.8 | 0.00 | 1.30 | 0.00 | 94 | 1015.9 |
| 20260508005804 | 6 | 52 | 1.6 | 4.8 | 0.00 | 1.30 | 0.00 | 94 | 1015.9 |
| 20260508005504 | 6 | 53 | 3.2 | 6.4 | 0.00 | 1.27 | 0.00 | 94 | 1016.0 |
| 20260508005404 | 6 | 52 | 3.2 | 6.4 | 0.00 | 1.27 | 0.00 | 94 | 1016.1 |
| 20260508005204 | 6 | 51 | 3.2 | 6.4 | 0.00 | 1.27 | 0.00 | 94 | 1016.0 |
| 20260508005104 | 6 | 51 | 3.2 | 6.4 | 0.00 | 1.27 | 0.00 | 94 | 1016.2 |
| 20260508005005 | 6 | 51 | 3.2 | 6.4 | 0.00 | 1.27 | 0.00 | 94 | 1016.1 |
| 20260508004904 | 6 | 51 | 3.2 | 6.4 | 0.00 | 1.27 | 0.00 | 94 | 1016.1 |
| 20260508004804 | 6 | 50 | 3.2 | 6.4 | 0.00 | 1.27 | 0.00 | 94 | 1016.0 |
| 20260508004604 | 6 | 50 | 3.2 | 4.8 | 0.00 | 1.27 | 0.00 | 94 | 1016.0 |
| 20260508004505 | 6 | 49 | 3.2 | 4.8 | 0.00 | 1.27 | 0.00 | 94 | 1016.1 |
| 20260508004404 | 6 | 48 | 3.2 | 4.8 | 0.00 | 1.27 | 0.00 | 94 | 1016.1 |
| 20260508004304 | 6 | 48 | 3.2 | 4.8 | 0.00 | 1.30 | 0.00 | 94 | 1016.1 |
| 20260508004104 | 6 | 45 | 3.2 | 4.8 | 0.00 | 1.30 | 0.00 | 94 | 1015.9 |
| 20260508004004 | 6 | 43 | 3.2 | 4.8 | 0.00 | 1.30 | 0.00 | 94 | 1016.2 |
| 20260508003904 | 6 | 44 | 3.2 | 4.8 | 0.00 | 1.30 | 0.00 | 94 | 1016.2 |
| 20260508003804 | 6 | 44 | 3.2 | 6.4 | 0.00 | 1.30 | 0.00 | 94 | 1016.0 |
| 20260508003704 | 6 | 46 | 3.2 | 6.4 | 0.00 | 1.30 | 0.00 | 94 | 1016.1 |
| 20260508003604 | 6 | 46 | 4.8 | 9.7 | 0.00 | 1.30 | 0.00 | 94 | 1015.9 |
| 20260508003504 | 6 | 45 | 4.8 | 9.7 | 0.00 | 1.30 | 0.00 | 94 | 1016.1 |
| 20260508003304 | 6 | 45 | 4.8 | 9.7 | 0.00 | 1.30 | 0.00 | 94 | 1016.1 |
| 20260508003204 | 6 | 45 | 4.8 | 9.7 | 0.00 | 1.30 | 0.00 | 94 | 1016.1 |
| 20260508003104 | 6 | 46 | 4.8 | 9.7 | 0.00 | 1.30 | 0.00 | 94 | 1015.9 |
| 20260508003005 | 6 | 48 | 4.8 | 9.7 | 0.00 | 1.32 | 0.00 | 94 | 1016.0 |
| 20260508002704 | 6 | 43 | 4.8 | 9.7 | 0.00 | 1.32 | 0.00 | 94 | 1016.1 |
| 20260508002604 | 6 | 41 | 4.8 | 6.4 | 0.00 | 1.32 | 0.00 | 94 | 1016.0 |
| 20260508002504 | 6 | 40 | 4.8 | 6.4 | 0.00 | 1.32 | 0.00 | 94 | 1016.1 |
| 20260508002404 | 6 | 39 | 4.8 | 6.4 | 0.00 | 1.32 | 0.00 | 94 | 1016.2 |
| 20260508002306 | 6 | 38 | 4.8 | 6.4 | 0.00 | 1.32 | 0.00 | 94 | 1016.0 |
| 20260508002205 | 6 | 36 | 4.8 | 6.4 | 0.00 | 1.32 | 0.00 | 94 | 1016.1 |
| 20260508002105 | 6 | 34 | 4.8 | 6.4 | 0.00 | 1.32 | 0.00 | 94 | 1016.0 |
| 20260508002005 | 6 | 32 | 3.2 | 6.4 | 0.00 | 1.32 | 0.00 | 94 | 1016.1 |
| 20260508001905 | 6 | 30 | 3.2 | 6.4 | 0.00 | 1.32 | 0.00 | 94 | 1016.0 |
| 20260508001805 | 6 | 30 | 3.2 | 6.4 | 0.00 | 1.32 | 0.00 | 94 | 1015.9 |
| 20260508001605 | 6 | 33 | 1.6 | 6.4 | 0.00 | 1.32 | 0.00 | 94 | 1016.1 |
| 20260508001511 | 6 | 32 | 1.6 | 4.8 | 0.00 | 1.32 | 0.00 | 94 | 1016.0 |
| 20260508001504 | 6 | 31 | 1.6 | 4.8 | 0.00 | 1.32 | 0.00 | 94 | 1016.0 |
| 20260508001404 | 6 | 30 | 1.6 | 4.8 | 0.00 | 1.32 | 0.00 | 94 | 1016.0 |
| 20260508001204 | 6 | 31 | 0.0 | 4.8 | 0.00 | 1.32 | 0.00 | 94 | 1016.0 |
| 20260508001104 | 6 | 0 | 0.0 | 0.0 | 0.00 | 1.32 | 0.00 | 94 | 1015.9 |
| 20260508001004 | 6 | 0 | 0.0 | 0.0 | 0.00 | 1.32 | 0.00 | 94 | 1016.0 |
| 20260508000904 | 6 | 0 | 0.0 | 0.0 | 0.00 | 1.32 | 0.00 | 94 | 1016.2 |
| 20260508000804 | 6 | 0 | 0.0 | 0.0 | 0.00 | 1.32 | 0.00 | 94 | 1015.9 |
| 20260508000704 | 6 | 0 | 0.0 | 0.0 | 0.00 | 1.32 | 0.00 | 94 | 1015.9 |
| 20260508000604 | 6 | 0 | 0.0 | 0.0 | 0.00 | 1.32 | 0.00 | 94 | 1016.1 |
| 20260508000504 | 6 | 0 | 0.0 | 0.0 | 0.00 | 1.32 | 0.00 | 94 | 1016.0 |
| 20260508000405 | 6 | 0 | 0.0 | 0.0 | 0.00 | 1.32 | 0.00 | 94 | 1016.1 |
| 20260508000305 | 6 | 0 | 0.0 | 0.0 | 0.00 | 1.32 | 0.00 | 94 | 1015.9 |
| 20260508000205 | 6 | 0 | 0.0 | 0.0 | 0.00 | 1.32 | 0.00 | 94 | 1016.2 |
| 20260508000104 | 6 | 0 | 0.0 | 0.0 | 0.00 | 1.32 | 0.00 | 94 | 1016.1 |
| 20260508000011 | 6 | 0 | 0.0 | 0.0 | 0.00 | 1.32 | 0.00 | 94 | 1016.0 |
| 20260507235904 | 6 | 0 | 0.0 | 0.0 | 0.00 | 1.32 | 0.00 | 94 | 1016.3 |
| 20260507235604 | 6 | 0 | 0.0 | 0.0 | 0.00 | 1.32 | 0.00 | 94 | 1016.3 |
| 20260507235504 | 6 | 0 | 0.0 | 0.0 | 0.00 | 1.32 | 0.00 | 94 | 1016.1 |
| 20260507235404 | 6 | 0 | 0.0 | 0.0 | 0.00 | 1.32 | 0.00 | 94 | 1015.9 |
| 20260507235306 | 6 | 0 | 0.0 | 0.0 | 0.00 | 1.32 | 0.00 | 94 | 1016.2 |
| 20260507235204 | 6 | 0 | 0.0 | 0.0 | 0.00 | 1.32 | 0.00 | 94 | 1016.3 |
| 20260507235104 | 6 | 0 | 0.0 | 0.0 | 0.00 | 1.32 | 0.00 | 94 | 1016.2 |
| 20260507235005 | 6 | 0 | 0.0 | 0.0 | 0.00 | 1.32 | 0.00 | 94 | 1016.2 |
| 20260507234904 | 6 | 0 | 0.0 | 0.0 | 0.00 | 1.32 | 0.00 | 94 | 1016.2 |
| 20260507234804 | 6 | 0 | 0.0 | 0.0 | 0.00 | 1.32 | 0.00 | 94 | 1016.0 |
| 20260507234704 | 6 | 0 | 0.0 | 0.0 | 0.00 | 1.32 | 0.00 | 94 | 1016.2 |
| 20260507234504 | 6 | 0 | 0.0 | 0.0 | 0.00 | 1.32 | 0.00 | 94 | 1016.2 |
| 20260507234404 | 6 | 0 | 0.0 | 0.0 | 0.00 | 1.32 | 0.00 | 94 | 1016.1 |
| 20260507234304 | 6 | 60 | 0.0 | 1.6 | 0.00 | 1.32 | 0.00 | 94 | 1016.1 |
| 20260507234204 | 6 | 64 | 0.0 | 3.2 | 0.00 | 1.32 | 0.00 | 94 | 1016.2 |
| 20260507234104 | 6 | 62 | 0.0 | 3.2 | 0.00 | 1.32 | 0.00 | 94 | 1016.0 |
| 20260507234004 | 6 | 58 | 0.0 | 3.2 | 0.00 | 1.32 | 0.00 | 94 | 1016.0 |
| 20260507233904 | 6 | 55 | 0.0 | 3.2 | 0.00 | 1.32 | 0.00 | 94 | 1016.1 |
| 20260507233804 | 6 | 53 | 1.6 | 3.2 | 0.00 | 1.32 | 0.00 | 94 | 1016.1 |
| 20260507233704 | 6 | 52 | 1.6 | 3.2 | 0.00 | 1.32 | 0.00 | 94 | 1016.1 |
| 20260507233604 | 6 | 51 | 1.6 | 3.2 | 0.00 | 1.32 | 0.00 | 94 | 1016.3 |
| 20260507233505 | 6 | 49 | 1.6 | 4.8 | 0.00 | 1.32 | 0.00 | 94 | 1015.9 |
| 20260507233404 | 6 | 49 | 1.6 | 4.8 | 0.00 | 1.32 | 0.00 | 94 | 1016.1 |
| 20260507233304 | 6 | 49 | 1.6 | 4.8 | 0.00 | 1.32 | 0.00 | 94 | 1016.0 |
| 20260507233212 | 6 | 47 | 1.6 | 4.8 | 0.00 | 1.32 | 0.00 | 94 | 1016.2 |
| 20260507232904 | 6 | 45 | 1.6 | 4.8 | 0.00 | 1.32 | 0.00 | 94 | 1015.9 |
| 20260507232804 | 6 | 45 | 1.6 | 4.8 | 0.00 | 1.32 | 0.00 | 94 | 1016.2 |
| 20260507232704 | 6 | 45 | 0.0 | 4.8 | 0.00 | 1.32 | 0.00 | 94 | 1016.1 |
| 20260507232504 | 6 | 49 | 0.0 | 4.8 | 0.00 | 1.32 | 0.00 | 94 | 1016.1 |
| 20260507232404 | 6 | 0 | 0.0 | 0.0 | 0.00 | 1.32 | 0.00 | 94 | 1016.1 |
| 20260507232306 | 6 | 0 | 0.0 | 0.0 | 0.00 | 1.32 | 0.00 | 94 | 1016.2 |
| 20260507232204 | 6 | 0 | 0.0 | 0.0 | 0.00 | 1.32 | 0.00 | 94 | 1016.2 |
| 20260507232104 | 6 | 0 | 0.0 | 0.0 | 0.00 | 1.32 | 0.00 | 94 | 1016.2 |
| 20260507232004 | 6 | 0 | 0.0 | 0.0 | 0.00 | 1.32 | 0.00 | 94 | 1016.4 |
| 20260507231904 | 6 | 0 | 0.0 | 0.0 | 0.00 | 1.32 | 0.00 | 94 | 1016.3 |
| 20260507231804 | 6 | 0 | 0.0 | 0.0 | 0.00 | 1.32 | 0.00 | 94 | 1016.3 |
| 20260507231704 | 6 | 0 | 0.0 | 0.0 | 0.00 | 1.32 | 0.00 | 94 | 1016.3 |
| 20260507231606 | 6 | 0 | 0.0 | 0.0 | 0.00 | 1.32 | 0.00 | 94 | 1016.3 |
| 20260507231504 | 6 | 0 | 0.0 | 0.0 | 0.00 | 1.32 | 0.00 | 94 | 1016.2 |
| 20260507231404 | 6 | 0 | 0.0 | 0.0 | 0.00 | 1.32 | 0.00 | 94 | 1016.3 |
| 20260507231304 | 6 | 0 | 0.0 | 0.0 | 0.00 | 1.32 | 0.00 | 94 | 1016.3 |
| 20260507231104 | 6 | 0 | 0.0 | 0.0 | 0.00 | 1.32 | 0.00 | 94 | 1016.2 |
| 20260507231004 | 6 | 0 | 0.0 | 0.0 | 0.00 | 1.32 | 0.00 | 94 | 1016.1 |
| 20260507230804 | 6 | 0 | 0.0 | 0.0 | 0.00 | 1.32 | 0.00 | 94 | 1016.0 |
| 20260507230705 | 6 | 0 | 0.0 | 0.0 | 0.00 | 1.32 | 0.00 | 94 | 1016.1 |
| 20260507230604 | 6 | 0 | 0.0 | 0.0 | 0.00 | 1.32 | 0.00 | 94 | 1016.3 |
| 20260507230304 | 6 | 0 | 0.0 | 0.0 | 0.00 | 1.32 | 0.00 | 94 | 1016.1 |
| 20260507230204 | 6 | 0 | 0.0 | 0.0 | 0.00 | 1.32 | 0.00 | 94 | 1016.1 |
| 20260507230104 | 6 | 0 | 0.0 | 0.0 | 0.00 | 1.32 | 0.00 | 94 | 1016.2 |
| 20260507230005 | 6 | 0 | 0.0 | 0.0 | 0.00 | 1.32 | 0.00 | 94 | 1016.3 |
| 20260507225904 | 6 | 0 | 0.0 | 0.0 | 0.00 | 1.32 | 0.00 | 94 | 1016.1 |
| 20260507225804 | 6 | 0 | 0.0 | 0.0 | 0.00 | 1.32 | 0.00 | 94 | 1016.0 |
| 20260507225704 | 6 | 0 | 0.0 | 0.0 | 0.00 | 1.32 | 0.00 | 94 | 1016.2 |
| 20260507225604 | 6 | 0 | 0.0 | 0.0 | 0.00 | 1.32 | 0.00 | 94 | 1016.1 |
| 20260507225504 | 6 | 0 | 0.0 | 0.0 | 0.00 | 1.32 | 0.00 | 94 | 1016.0 |
| 20260507225404 | 6 | 0 | 0.0 | 0.0 | 0.00 | 1.32 | 0.00 | 94 | 1016.1 |
| 20260507225306 | 6 | 0 | 0.0 | 0.0 | 0.00 | 1.32 | 0.00 | 94 | 1016.1 |
| 20260507225204 | 6 | 0 | 0.0 | 0.0 | 0.00 | 1.32 | 0.00 | 94 | 1016.1 |
| 20260507225104 | 6 | 0 | 0.0 | 0.0 | 0.00 | 1.32 | 0.00 | 94 | 1016.2 |
| 20260507224904 | 6 | 0 | 0.0 | 0.0 | 0.00 | 1.32 | 0.00 | 94 | 1016.0 |
| 20260507224804 | 6 | 0 | 0.0 | 0.0 | 0.00 | 1.32 | 0.00 | 94 | 1016.0 |
| 20260507224705 | 6 | 0 | 0.0 | 0.0 | 0.00 | 1.32 | 0.00 | 94 | 1016.1 |
| 20260507224604 | 6 | 0 | 0.0 | 0.0 | 0.00 | 1.32 | 0.00 | 94 | 1016.0 |
| 20260507224505 | 6 | 0 | 0.0 | 0.0 | 0.00 | 1.32 | 0.00 | 94 | 1016.2 |
| 20260507224404 | 6 | 0 | 0.0 | 0.0 | 0.00 | 1.32 | 0.00 | 94 | 1016.0 |
| 20260507224204 | 6 | 0 | 0.0 | 0.0 | 0.00 | 1.32 | 0.00 | 94 | 1016.1 |
| 20260507224105 | 6 | 0 | 0.0 | 0.0 | 0.00 | 1.32 | 0.00 | 94 | 1015.9 |
| 20260507224004 | 6 | 0 | 0.0 | 0.0 | 0.00 | 1.32 | 0.00 | 94 | 1016.0 |
| 20260507223904 | 6 | 0 | 0.0 | 0.0 | 0.00 | 1.32 | 0.00 | 94 | 1015.9 |
| 20260507223804 | 6 | 0 | 0.0 | 0.0 | 0.00 | 1.32 | 0.00 | 94 | 1016.0 |
| 20260507223705 | 6 | 0 | 0.0 | 0.0 | 0.00 | 1.32 | 0.00 | 94 | 1016.1 |
| 20260507223607 | 6 | 0 | 0.0 | 0.0 | 0.00 | 1.32 | 0.00 | 94 | 1016.1 |
| 20260507223504 | 6 | 36 | 0.0 | 1.6 | 0.00 | 1.32 | 0.00 | 94 | 1016.0 |
| 20260507223404 | 6 | 35 | 0.0 | 3.2 | 0.00 | 1.32 | 0.00 | 94 | 1015.9 |
| 20260507223304 | 6 | 35 | 0.0 | 3.2 | 0.00 | 1.32 | 0.00 | 94 | 1016.1 |
| 20260507223204 | 6 | 37 | 0.0 | 3.2 | 0.00 | 1.32 | 0.00 | 94 | 1016.0 |
| 20260507223104 | 6 | 37 | 0.0 | 3.2 | 0.00 | 1.32 | 0.00 | 94 | 1016.0 |
| 20260507223004 | 6 | 37 | 0.0 | 3.2 | 0.00 | 1.32 | 0.00 | 94 | 1015.8 |
| 20260507222904 | 6 | 37 | 0.0 | 3.2 | 0.00 | 1.32 | 0.00 | 94 | 1016.0 |
| 20260507222704 | 6 | 37 | 0.0 | 3.2 | 0.00 | 1.32 | 0.00 | 94 | 1015.8 |
| 20260507222604 | 6 | 37 | 0.0 | 3.2 | 0.00 | 1.32 | 0.00 | 94 | 1016.0 |
| 20260507222504 | 6 | 37 | 0.0 | 3.2 | 0.00 | 1.32 | 0.00 | 94 | 1016.0 |
| 20260507222405 | 6 | 37 | 0.0 | 3.2 | 0.00 | 1.32 | 0.00 | 94 | 1016.1 |
| 20260507222306 | 6 | 38 | 0.0 | 3.2 | 0.00 | 1.32 | 0.00 | 94 | 1016.1 |
| 20260507222204 | 6 | 36 | 0.0 | 3.2 | 0.00 | 1.32 | 0.00 | 94 | 1016.1 |
| 20260507222004 | 6 | 0 | 0.0 | 0.0 | 0.00 | 1.32 | 0.00 | 94 | 1016.1 |
| 20260507221905 | 6 | 0 | 0.0 | 0.0 | 0.00 | 1.32 | 0.00 | 94 | 1016.2 |
| 20260507221804 | 6 | 0 | 0.0 | 0.0 | 0.00 | 1.32 | 0.00 | 94 | 1016.0 |
| 20260507221704 | 6 | 0 | 0.0 | 0.0 | 0.00 | 1.32 | 0.00 | 94 | 1016.1 |
| 20260507221611 | 6 | 0 | 0.0 | 0.0 | 0.00 | 1.32 | 0.00 | 94 | 1016.1 |
| 20260507221504 | 6 | 0 | 0.0 | 0.0 | 0.00 | 1.32 | 0.00 | 94 | 1016.0 |
| 20260507221311 | 6 | 0 | 0.0 | 0.0 | 0.00 | 1.32 | 0.00 | 94 | 1016.1 |
| 20260507221204 | 6 | 0 | 0.0 | 0.0 | 0.00 | 1.32 | 0.00 | 94 | 1016.1 |
| 20260507221005 | 6 | 0 | 0.0 | 0.0 | 0.00 | 1.32 | 0.00 | 94 | 1016.1 |
| 20260507220904 | 6 | 0 | 0.0 | 0.0 | 0.00 | 1.32 | 0.00 | 94 | 1016.1 |
| 20260507220804 | 6 | 0 | 0.0 | 0.0 | 0.00 | 1.32 | 0.00 | 94 | 1016.0 |
| 20260507220704 | 6 | 0 | 0.0 | 0.0 | 0.00 | 1.32 | 0.00 | 94 | 1016.2 |
| 20260507220604 | 6 | 0 | 0.0 | 0.0 | 0.00 | 1.32 | 0.00 | 94 | 1016.1 |
| 20260507220504 | 6 | 0 | 0.0 | 0.0 | 0.00 | 1.32 | 0.00 | 94 | 1016.0 |
| 20260507220404 | 6 | 0 | 0.0 | 0.0 | 0.00 | 1.32 | 0.00 | 94 | 1016.1 |
| 20260507220304 | 6 | 0 | 0.0 | 0.0 | 0.00 | 1.32 | 0.00 | 94 | 1016.0 |
| 20260507220251 | 6 | 0 | 0.0 | 0.0 | 0.00 | 1.32 | 0.00 | 94 | 1016.1 |
| 20260507220204 | 6 | 0 | 0.0 | 0.0 | 0.00 | 1.32 | 0.00 | 94 | 1016.1 |
| 20260507220104 | 6 | 0 | 0.0 | 0.0 | 0.00 | 1.32 | 0.00 | 94 | 1016.1 |
| 20260507215904 | 6 | 0 | 0.0 | 0.0 | 0.00 | 1.32 | 1.32 | 94 | 1016.0 |
| 20260507215804 | 6 | 0 | 0.0 | 0.0 | 0.00 | 1.32 | 1.32 | 94 | 1016.1 |
| 20260507215704 | 6 | 0 | 0.0 | 0.0 | 0.00 | 1.32 | 1.32 | 94 | 1016.0 |
| 20260507215604 | 6 | 0 | 0.0 | 0.0 | 0.00 | 1.32 | 1.32 | 94 | 1016.3 |
| 20260507215505 | 6 | 0 | 0.0 | 0.0 | 0.00 | 1.32 | 1.32 | 94 | 1016.0 |
| 20260507215404 | 6 | 0 | 0.0 | 0.0 | 0.00 | 1.32 | 1.32 | 94 | 1016.1 |
| 20260507215306 | 6 | 0 | 0.0 | 0.0 | 0.00 | 1.32 | 1.32 | 94 | 1016.1 |
| 20260507215204 | 6 | 0 | 0.0 | 0.0 | 0.00 | 1.32 | 1.32 | 94 | 1015.9 |
| 20260507215104 | 6 | 0 | 0.0 | 0.0 | 0.00 | 1.32 | 1.32 | 94 | 1016.0 |
| 20260507214904 | 6 | 0 | 0.0 | 0.0 | 0.00 | 1.32 | 1.32 | 94 | 1016.1 |
| 20260507214804 | 6 | 0 | 0.0 | 0.0 | 0.00 | 1.32 | 1.32 | 94 | 1016.1 |
| 20260507214704 | 6 | 45 | 0.0 | 1.6 | 0.00 | 1.32 | 1.32 | 94 | 1016.0 |
| 20260507214604 | 6 | 45 | 0.0 | 1.6 | 0.00 | 1.32 | 1.32 | 94 | 1016.1 |
| 20260507214505 | 6 | 44 | 0.0 | 1.6 | 0.00 | 1.32 | 1.32 | 94 | 1016.0 |
| 20260507214404 | 6 | 44 | 0.0 | 3.2 | 0.00 | 1.32 | 1.32 | 94 | 1016.0 |
| 20260507214304 | 6 | 42 | 0.0 | 3.2 | 0.00 | 1.32 | 1.32 | 94 | 1016.1 |
| 20260507214204 | 6 | 40 | 0.0 | 3.2 | 0.00 | 1.32 | 1.32 | 94 | 1015.9 |
| 20260507214004 | 6 | 41 | 1.6 | 4.8 | 0.00 | 1.32 | 1.32 | 94 | 1016.1 |
| 20260507213904 | 6 | 44 | 1.6 | 4.8 | 0.00 | 1.32 | 1.32 | 94 | 1016.0 |
| 20260507213804 | 6 | 45 | 1.6 | 4.8 | 0.00 | 1.32 | 1.32 | 94 | 1015.9 |
| 20260507213704 | 6 | 47 | 1.6 | 4.8 | 0.00 | 1.32 | 1.32 | 94 | 1015.9 |
| 20260507213504 | 6 | 50 | 1.6 | 4.8 | 0.00 | 1.32 | 1.32 | 94 | 1015.9 |
| 20260507213404 | 6 | 51 | 1.6 | 4.8 | 0.00 | 1.32 | 1.32 | 94 | 1016.0 |
| 20260507213104 | 6 | 60 | 1.6 | 4.8 | 0.00 | 1.32 | 1.32 | 94 | 1016.1 |
| 20260507213004 | 6 | 61 | 1.6 | 3.2 | 0.00 | 1.32 | 1.32 | 94 | 1016.1 |
| 20260507212905 | 6 | 61 | 1.6 | 3.2 | 0.00 | 1.32 | 1.32 | 94 | 1016.2 |
| 20260507212804 | 6 | 60 | 1.6 | 3.2 | 0.00 | 1.32 | 1.32 | 94 | 1016.2 |
| 20260507212704 | 6 | 59 | 1.6 | 3.2 | 0.00 | 1.32 | 1.32 | 94 | 1016.2 |
| 20260507212604 | 6 | 58 | 1.6 | 3.2 | 0.00 | 1.32 | 1.32 | 94 | 1016.0 |
| 20260507212504 | 6 | 57 | 1.6 | 3.2 | 0.00 | 1.32 | 1.32 | 94 | 1016.1 |
| 20260507212307 | 6 | 55 | 1.6 | 3.2 | 0.00 | 1.32 | 1.30 | 94 | 1016.2 |
| 20260507212204 | 6 | 55 | 1.6 | 3.2 | 0.00 | 1.32 | 1.30 | 94 | 1016.0 |
| 20260507212104 | 6 | 58 | 1.6 | 3.2 | 0.00 | 1.32 | 1.30 | 94 | 1016.1 |
| 20260507211904 | 6 | 55 | 1.6 | 3.2 | 0.00 | 1.32 | 1.30 | 94 | 1016.0 |
| 20260507211804 | 6 | 58 | 1.6 | 3.2 | 0.00 | 1.32 | 1.30 | 94 | 1016.1 |
| 20260507211704 | 6 | 58 | 1.6 | 3.2 | 0.00 | 1.35 | 1.30 | 94 | 1016.1 |
| 20260507211604 | 6 | 55 | 1.6 | 4.8 | 0.00 | 1.35 | 1.30 | 94 | 1016.0 |
| 20260507211512 | 6 | 55 | 1.6 | 4.8 | 0.00 | 1.35 | 1.30 | 94 | 1015.9 |
| 20260507211504 | 6 | 56 | 1.6 | 4.8 | 0.00 | 1.35 | 1.30 | 94 | 1015.9 |
| 20260507211404 | 6 | 54 | 1.6 | 4.8 | 0.00 | 1.35 | 1.30 | 94 | 1016.0 |
| 20260507211204 | 6 | 49 | 3.2 | 4.8 | 0.00 | 1.37 | 1.30 | 94 | 1016.1 |
| 20260507211104 | 6 | 48 | 3.2 | 4.8 | 0.00 | 1.37 | 1.30 | 94 | 1015.9 |
| 20260507210904 | 6 | 46 | 3.2 | 4.8 | 0.00 | 1.40 | 1.30 | 94 | 1016.1 |
| 20260507210804 | 6 | 45 | 3.2 | 4.8 | 0.00 | 1.42 | 1.30 | 94 | 1015.9 |
| 20260507210704 | 6 | 45 | 3.2 | 4.8 | 0.00 | 1.42 | 1.30 | 94 | 1016.1 |
| 20260507210604 | 6 | 44 | 3.2 | 6.4 | 0.00 | 1.45 | 1.30 | 94 | 1016.1 |
| 20260507210505 | 6 | 44 | 3.2 | 6.4 | 0.00 | 1.47 | 1.30 | 94 | 1016.1 |
| 20260507210304 | 6 | 44 | 3.2 | 6.4 | 0.00 | 1.47 | 1.30 | 94 | 1016.1 |
| 20260507210204 | 6 | 45 | 3.2 | 6.4 | 0.00 | 1.50 | 1.30 | 94 | 1015.9 |
| 20260507210104 | 6 | 42 | 3.2 | 6.4 | 0.00 | 1.50 | 1.30 | 94 | 1016.1 |
| 20260507210005 | 6 | 44 | 3.2 | 9.7 | 0.00 | 1.52 | 1.30 | 94 | 1016.2 |
| 20260507205904 | 6 | 46 | 3.2 | 9.7 | 0.00 | 1.52 | 1.30 | 94 | 1016.3 |
| 20260507205804 | 6 | 45 | 3.2 | 9.7 | 0.00 | 1.55 | 1.30 | 94 | 1016.0 |
| 20260507205704 | 6 | 44 | 3.2 | 9.7 | 0.00 | 1.55 | 1.30 | 94 | 1016.0 |
| 20260507205604 | 6 | 44 | 3.2 | 9.7 | 0.00 | 1.55 | 1.30 | 94 | 1016.1 |
| 20260507205504 | 6 | 43 | 3.2 | 9.7 | 0.00 | 1.57 | 1.30 | 94 | 1016.0 |
| 20260507205404 | 6 | 43 | 3.2 | 9.7 | 0.00 | 1.60 | 1.30 | 94 | 1016.2 |
| 20260507205306 | 6 | 42 | 4.8 | 9.7 | 0.00 | 1.63 | 1.30 | 94 | 1016.1 |
| 20260507205204 | 6 | 43 | 4.8 | 9.7 | 0.00 | 1.73 | 1.30 | 94 | 1016.1 |
| 20260507205104 | 6 | 45 | 4.8 | 9.7 | 0.00 | 1.73 | 1.30 | 94 | 1016.1 |
| 20260507205011 | 6 | 45 | 4.8 | 9.7 | 0.00 | 1.75 | 1.30 | 94 | 1016.1 |
| 20260507205005 | 6 | 44 | 4.8 | 9.7 | 0.00 | 1.75 | 1.30 | 94 | 1016.1 |
| 20260507204904 | 6 | 43 | 4.8 | 9.7 | 0.00 | 1.78 | 1.30 | 94 | 1016.2 |
| 20260507204704 | 6 | 42 | 4.8 | 9.7 | 0.00 | 1.78 | 1.30 | 94 | 1015.9 |
| 20260507204604 | 6 | 41 | 4.8 | 9.7 | 0.00 | 1.78 | 1.30 | 94 | 1016.2 |
| 20260507204505 | 6 | 41 | 6.4 | 9.7 | 0.00 | 1.78 | 1.30 | 94 | 1016.0 |
| 20260507204404 | 6 | 41 | 6.4 | 9.7 | 0.00 | 1.78 | 1.30 | 94 | 1015.9 |
| 20260507204304 | 6 | 42 | 6.4 | 9.7 | 0.00 | 1.78 | 1.30 | 94 | 1016.0 |
| 20260507204104 | 6 | 40 | 6.4 | 9.7 | 0.00 | 1.78 | 1.30 | 94 | 1016.0 |
| 20260507204005 | 6 | 38 | 6.4 | 9.7 | 0.00 | 1.78 | 1.30 | 94 | 1015.9 |
| 20260507203904 | 6 | 40 | 6.4 | 9.7 | 0.00 | 1.78 | 1.30 | 94 | 1015.9 |
| 20260507203804 | 6 | 41 | 6.4 | 9.7 | 0.00 | 1.78 | 1.30 | 94 | 1015.9 |
| 20260507203704 | 6 | 41 | 6.4 | 9.7 | 0.00 | 1.78 | 1.30 | 94 | 1015.9 |
| 20260507203604 | 6 | 42 | 6.4 | 9.7 | 0.00 | 1.78 | 1.30 | 94 | 1015.9 |
| 20260507203505 | 6 | 41 | 6.4 | 9.7 | 0.00 | 1.78 | 1.30 | 94 | 1015.9 |
| 20260507203404 | 6 | 41 | 6.4 | 9.7 | 0.00 | 1.78 | 1.30 | 94 | 1016.0 |
| 20260507203211 | 6 | 41 | 6.4 | 9.7 | 0.00 | 1.78 | 1.30 | 94 | 1015.9 |
| 20260507203204 | 6 | 40 | 6.4 | 9.7 | 0.00 | 1.78 | 1.30 | 94 | 1015.9 |
| 20260507203104 | 6 | 39 | 6.4 | 9.7 | 0.00 | 1.78 | 1.30 | 94 | 1016.0 |
| 20260507202911 | 6 | 37 | 6.4 | 9.7 | 0.00 | 1.78 | 1.30 | 94 | 1015.9 |
| 20260507202904 | 6 | 36 | 6.4 | 9.7 | 0.00 | 1.78 | 1.30 | 94 | 1015.9 |
| 20260507202804 | 6 | 34 | 6.4 | 9.7 | 0.00 | 1.78 | 1.30 | 94 | 1015.9 |
| 20260507202712 | 6 | 34 | 4.8 | 9.7 | 0.00 | 1.78 | 1.30 | 94 | 1015.9 |
| 20260507202604 | 6 | 33 | 4.8 | 9.7 | 0.00 | 1.80 | 1.30 | 94 | 1015.6 |
| 20260507202404 | 6 | 33 | 4.8 | 9.7 | 0.00 | 1.83 | 1.30 | 94 | 1015.8 |
| 20260507202306 | 6 | 32 | 4.8 | 9.7 | 0.00 | 1.83 | 1.30 | 94 | 1015.8 |
| 20260507202204 | 6 | 32 | 4.8 | 9.7 | 0.00 | 1.83 | 1.30 | 94 | 1015.8 |
| 20260507202104 | 6 | 34 | 4.8 | 9.7 | 0.00 | 1.83 | 1.30 | 94 | 1015.6 |
| 20260507202005 | 6 | 35 | 3.2 | 9.7 | 0.00 | 1.83 | 1.30 | 94 | 1015.8 |
| 20260507201904 | 6 | 34 | 3.2 | 6.4 | 0.00 | 1.83 | 1.30 | 94 | 1015.6 |
| 20260507201704 | 6 | 36 | 3.2 | 4.8 | 0.00 | 1.83 | 1.30 | 94 | 1015.7 |
| 20260507201604 | 6 | 37 | 3.2 | 4.8 | 0.00 | 1.83 | 1.30 | 94 | 1015.8 |
| 20260507201504 | 6 | 37 | 3.2 | 4.8 | 0.00 | 1.83 | 1.30 | 94 | 1015.6 |
| 20260507201404 | 6 | 38 | 3.2 | 4.8 | 0.00 | 1.83 | 1.30 | 94 | 1015.6 |
| 20260507201304 | 6 | 39 | 3.2 | 4.8 | 0.00 | 1.83 | 1.30 | 94 | 1015.5 |
| 20260507201212 | 6 | 39 | 3.2 | 6.4 | 0.00 | 1.85 | 1.30 | 94 | 1015.6 |
| 20260507201204 | 6 | 38 | 3.2 | 6.4 | 0.00 | 1.85 | 1.30 | 94 | 1015.6 |
| 20260507201104 | 6 | 36 | 3.2 | 9.7 | 0.00 | 1.85 | 1.30 | 94 | 1015.7 |
| 20260507200904 | 6 | 39 | 4.8 | 9.7 | 0.00 | 1.85 | 1.30 | 94 | 1015.8 |
| 20260507200804 | 6 | 40 | 4.8 | 9.7 | 0.00 | 1.85 | 1.30 | 94 | 1015.7 |
| 20260507200704 | 6 | 42 | 4.8 | 9.7 | 0.00 | 1.85 | 1.30 | 94 | 1015.7 |
| 20260507200604 | 6 | 44 | 4.8 | 9.7 | 0.00 | 1.85 | 1.30 | 94 | 1015.7 |
| 20260507200505 | 6 | 45 | 4.8 | 9.7 | 0.00 | 1.85 | 1.30 | 94 | 1015.7 |
| 20260507200412 | 6 | 44 | 4.8 | 9.7 | 0.00 | 1.91 | 1.30 | 94 | 1015.6 |
| 20260507200404 | 6 | 43 | 4.8 | 9.7 | 0.00 | 1.91 | 1.30 | 94 | 1015.6 |
| 20260507200304 | 6 | 43 | 4.8 | 9.7 | 0.00 | 1.91 | 1.30 | 94 | 1015.7 |
| 20260507200104 | 6 | 45 | 4.8 | 9.7 | 0.00 | 1.91 | 1.30 | 94 | 1015.5 |
| 20260507200006 | 6 | 44 | 6.4 | 9.7 | 0.00 | 1.91 | 1.30 | 94 | 1015.7 |
| 20260507195904 | 6 | 43 | 6.4 | 9.7 | 0.00 | 1.91 | 1.30 | 94 | 1015.5 |
| 20260507195804 | 6 | 44 | 6.4 | 9.7 | 0.00 | 1.91 | 1.30 | 94 | 1015.5 |
| 20260507195704 | 6 | 43 | 6.4 | 9.7 | 0.00 | 1.91 | 1.30 | 94 | 1015.5 |
| 20260507195604 | 6 | 42 | 6.4 | 9.7 | 0.00 | 1.91 | 1.30 | 94 | 1015.6 |
| 20260507195504 | 6 | 39 | 6.4 | 9.7 | 0.00 | 1.91 | 1.30 | 94 | 1015.6 |
| 20260507195404 | 6 | 39 | 6.4 | 9.7 | 0.00 | 1.91 | 1.30 | 94 | 1015.4 |
| 20260507195306 | 6 | 39 | 6.4 | 9.7 | 0.00 | 1.91 | 1.30 | 94 | 1015.5 |
| 20260507195204 | 6 | 38 | 6.4 | 9.7 | 0.00 | 1.91 | 1.30 | 94 | 1015.5 |
| 20260507195104 | 6 | 38 | 6.4 | 9.7 | 0.00 | 1.91 | 1.30 | 94 | 1015.4 |
| 20260507195004 | 6 | 38 | 6.4 | 9.7 | 0.00 | 1.91 | 1.30 | 94 | 1015.4 |
| 20260507194904 | 6 | 38 | 6.4 | 9.7 | 0.00 | 1.91 | 1.30 | 94 | 1015.5 |
| 20260507194804 | 6 | 38 | 6.4 | 9.7 | 0.00 | 1.91 | 1.30 | 94 | 1015.4 |
| 20260507194704 | 6 | 39 | 6.4 | 9.7 | 0.00 | 1.91 | 1.30 | 94 | 1015.5 |
| 20260507194604 | 6 | 39 | 6.4 | 9.7 | 0.00 | 1.91 | 1.30 | 94 | 1015.5 |
| 20260507194504 | 6 | 40 | 6.4 | 11.3 | 0.00 | 1.91 | 1.30 | 94 | 1015.4 |
| 20260507194404 | 6 | 43 | 6.4 | 11.3 | 0.00 | 1.91 | 1.30 | 94 | 1015.4 |
| 20260507194304 | 6 | 41 | 6.4 | 11.3 | 0.00 | 1.91 | 1.30 | 94 | 1015.5 |
| 20260507194204 | 6 | 41 | 6.4 | 11.3 | 0.00 | 1.91 | 1.30 | 94 | 1015.6 |
| 20260507194104 | 6 | 40 | 6.4 | 11.3 | 0.00 | 1.91 | 1.30 | 94 | 1015.6 |
| 20260507194004 | 6 | 40 | 6.4 | 11.3 | 0.00 | 1.91 | 1.30 | 94 | 1015.6 |
| 20260507193904 | 6 | 38 | 6.4 | 11.3 | 0.00 | 1.91 | 1.30 | 94 | 1015.5 |
| 20260507193604 | 6 | 31 | 6.4 | 11.3 | 0.00 | 1.91 | 1.30 | 94 | 1015.1 |
| 20260507193504 | 6 | 31 | 6.4 | 11.3 | 0.00 | 1.91 | 1.30 | 94 | 1015.5 |
| 20260507193404 | 6 | 28 | 6.4 | 11.3 | 0.00 | 1.91 | 1.30 | 94 | 1015.6 |
| 20260507193312 | 6 | 27 | 6.4 | 11.3 | 0.00 | 1.91 | 1.30 | 94 | 1015.4 |
| 20260507193204 | 6 | 25 | 6.4 | 11.3 | 0.00 | 1.91 | 1.30 | 94 | 1015.5 |
| 20260507193005 | 6 | 23 | 6.4 | 11.3 | 0.00 | 1.91 | 1.30 | 94 | 1015.4 |
| 20260507192911 | 6 | 23 | 6.4 | 11.3 | 0.00 | 1.91 | 1.30 | 94 | 1015.4 |
| 20260507192904 | 6 | 24 | 6.4 | 11.3 | 0.00 | 1.91 | 1.30 | 94 | 1015.4 |
| 20260507192804 | 6 | 24 | 6.4 | 11.3 | 0.00 | 1.91 | 1.30 | 94 | 1015.4 |
| 20260507192504 | 6 | 22 | 6.4 | 11.3 | 0.00 | 1.91 | 1.30 | 94 | 1015.4 |
| 20260507192404 | 6 | 21 | 4.8 | 11.3 | 0.00 | 1.91 | 1.30 | 94 | 1015.4 |
| 20260507192306 | 6 | 21 | 4.8 | 11.3 | 0.00 | 1.91 | 1.30 | 93 | 1015.4 |
| 20260507192205 | 6 | 22 | 4.8 | 9.7 | 0.00 | 1.91 | 1.30 | 93 | 1015.5 |
| 20260507192104 | 6 | 23 | 4.8 | 9.7 | 0.00 | 1.91 | 1.30 | 93 | 1015.5 |
| 20260507192004 | 6 | 23 | 4.8 | 9.7 | 0.00 | 1.91 | 1.30 | 93 | 1015.5 |
| 20260507191905 | 6 | 22 | 4.8 | 9.7 | 0.00 | 1.91 | 1.30 | 94 | 1015.3 |
| 20260507191804 | 6 | 22 | 4.8 | 9.7 | 0.00 | 1.91 | 1.30 | 93 | 1015.6 |
| 20260507191704 | 6 | 23 | 4.8 | 9.7 | 0.00 | 1.91 | 1.30 | 93 | 1015.4 |
| 20260507191605 | 6 | 23 | 4.8 | 9.7 | 0.00 | 1.91 | 1.30 | 93 | 1015.2 |
| 20260507191504 | 6 | 23 | 4.8 | 9.7 | 0.00 | 1.91 | 1.30 | 93 | 1015.4 |
| 20260507191404 | 6 | 24 | 4.8 | 6.4 | 0.00 | 1.91 | 1.30 | 93 | 1015.5 |
| 20260507191305 | 6 | 27 | 4.8 | 6.4 | 0.00 | 1.91 | 1.30 | 93 | 1015.3 |
| 20260507191204 | 6 | 30 | 4.8 | 6.4 | 0.00 | 1.91 | 1.30 | 93 | 1015.4 |
| 20260507191104 | 6 | 32 | 4.8 | 6.4 | 0.00 | 1.91 | 1.30 | 93 | 1015.4 |
| 20260507191004 | 6 | 34 | 4.8 | 6.4 | 0.00 | 1.91 | 1.30 | 93 | 1015.2 |
| 20260507190904 | 6 | 36 | 4.8 | 6.4 | 0.00 | 1.91 | 1.30 | 93 | 1015.3 |
| 20260507190804 | 6 | 37 | 4.8 | 6.4 | 0.00 | 1.91 | 1.30 | 93 | 1015.2 |
| 20260507190704 | 6 | 38 | 4.8 | 6.4 | 0.00 | 1.91 | 1.30 | 93 | 1015.2 |
| 20260507190604 | 6 | 40 | 4.8 | 6.4 | 0.00 | 1.91 | 1.30 | 93 | 1015.2 |
| 20260507190504 | 6 | 44 | 4.8 | 6.4 | 0.00 | 1.91 | 1.30 | 93 | 1015.2 |
| 20260507190404 | 6 | 45 | 4.8 | 9.7 | 0.00 | 1.91 | 1.30 | 93 | 1015.1 |
| 20260507190304 | 6 | 45 | 4.8 | 9.7 | 0.00 | 1.91 | 1.30 | 93 | 1015.2 |
| 20260507190204 | 6 | 46 | 4.8 | 9.7 | 0.00 | 1.91 | 1.30 | 93 | 1015.1 |
| 20260507190104 | 6 | 48 | 4.8 | 9.7 | 0.00 | 1.91 | 1.30 | 93 | 1015.0 |
| 20260507190006 | 6 | 47 | 4.8 | 9.7 | 0.00 | 1.91 | 1.30 | 93 | 1015.2 |
| 20260507185904 | 6 | 44 | 4.8 | 11.3 | 0.00 | 1.91 | 1.30 | 93 | 1015.1 |
| 20260507185704 | 6 | 44 | 6.4 | 11.3 | 0.00 | 1.91 | 1.30 | 93 | 1015.1 |
| 20260507185604 | 6 | 42 | 6.4 | 11.3 | 0.00 | 1.91 | 1.30 | 93 | 1015.1 |
| 20260507185404 | 6 | 40 | 6.4 | 11.3 | 0.00 | 1.91 | 1.30 | 93 | 1015.0 |
| 20260507185306 | 6 | 39 | 6.4 | 11.3 | 0.00 | 1.91 | 1.30 | 93 | 1015.0 |
| 20260507185204 | 6 | 38 | 6.4 | 11.3 | 0.00 | 1.91 | 1.30 | 93 | 1015.0 |
| 20260507185104 | 6 | 36 | 6.4 | 11.3 | 0.00 | 1.91 | 1.30 | 93 | 1015.0 |
| 20260507185004 | 6 | 35 | 4.8 | 11.3 | 0.00 | 1.91 | 1.30 | 93 | 1014.8 |
| 20260507184904 | 6 | 35 | 4.8 | 11.3 | 0.00 | 1.91 | 1.30 | 93 | 1015.1 |
| 20260507184804 | 6 | 35 | 4.8 | 9.7 | 0.00 | 1.91 | 1.30 | 93 | 1015.0 |
| 20260507184704 | 6 | 33 | 4.8 | 6.4 | 0.00 | 1.91 | 1.30 | 93 | 1014.7 |
| 20260507184604 | 6 | 34 | 4.8 | 6.4 | 0.00 | 1.91 | 1.30 | 93 | 1015.1 |
| 20260507184504 | 6 | 35 | 4.8 | 6.4 | 0.00 | 1.91 | 1.30 | 93 | 1015.0 |
| 20260507184404 | 6 | 33 | 4.8 | 6.4 | 0.00 | 1.91 | 1.30 | 93 | 1014.8 |
| 20260507184304 | 6 | 32 | 4.8 | 6.4 | 0.00 | 1.91 | 1.30 | 93 | 1014.8 |
| 20260507184204 | 6 | 32 | 4.8 | 6.4 | 0.00 | 1.91 | 1.30 | 93 | 1015.1 |
| 20260507184104 | 6 | 31 | 4.8 | 6.4 | 0.00 | 1.91 | 1.30 | 93 | 1015.1 |
| 20260507184004 | 6 | 33 | 3.2 | 6.4 | 0.00 | 1.91 | 1.30 | 93 | 1014.8 |
| 20260507183904 | 6 | 34 | 3.2 | 6.4 | 0.00 | 1.91 | 1.30 | 93 | 1015.0 |
| 20260507183804 | 6 | 35 | 3.2 | 6.4 | 0.00 | 1.91 | 1.30 | 93 | 1014.8 |
| 20260507183704 | 6 | 35 | 3.2 | 6.4 | 0.00 | 1.91 | 1.30 | 93 | 1014.7 |
| 20260507183604 | 6 | 35 | 3.2 | 6.4 | 0.00 | 1.91 | 1.30 | 93 | 1014.7 |
| 20260507183504 | 6 | 34 | 3.2 | 6.4 | 0.00 | 1.91 | 1.30 | 93 | 1014.8 |
| 20260507183304 | 6 | 34 | 3.2 | 6.4 | 0.00 | 1.91 | 1.30 | 93 | 1015.0 |
| 20260507183204 | 6 | 34 | 3.2 | 6.4 | 0.00 | 1.91 | 1.30 | 93 | 1014.8 |
| 20260507183105 | 6 | 34 | 3.2 | 6.4 | 0.00 | 1.91 | 1.30 | 93 | 1014.7 |
| 20260507183004 | 6 | 33 | 3.2 | 6.4 | 0.00 | 1.91 | 1.30 | 93 | 1015.1 |
| 20260507182904 | 6 | 32 | 3.2 | 6.4 | 0.00 | 1.91 | 1.30 | 93 | 1015.0 |
| 20260507182804 | 6 | 33 | 3.2 | 6.4 | 0.00 | 1.91 | 1.30 | 93 | 1014.8 |
| 20260507182704 | 6 | 33 | 3.2 | 6.4 | 0.00 | 1.91 | 1.30 | 93 | 1015.0 |
| 20260507182604 | 6 | 34 | 4.8 | 6.4 | 0.00 | 1.91 | 1.30 | 93 | 1014.8 |
| 20260507182505 | 6 | 34 | 4.8 | 6.4 | 0.00 | 1.91 | 1.30 | 93 | 1015.0 |
| 20260507182411 | 6 | 33 | 4.8 | 6.4 | 0.00 | 1.91 | 1.30 | 93 | 1015.0 |
| 20260507182306 | 6 | 33 | 4.8 | 6.4 | 0.00 | 1.91 | 1.30 | 93 | 1014.8 |
| 20260507182105 | 6 | 36 | 4.8 | 6.4 | 0.03 | 1.91 | 1.30 | 93 | 1014.8 |
| 20260507182005 | 6 | 37 | 4.8 | 6.4 | 0.03 | 1.91 | 1.30 | 93 | 1014.7 |
| 20260507181904 | 6 | 37 | 4.8 | 6.4 | 0.03 | 1.91 | 1.30 | 93 | 1014.7 |
| 20260507181804 | 6 | 37 | 4.8 | 6.4 | 0.03 | 1.91 | 1.30 | 93 | 1014.7 |
| 20260507181704 | 6 | 38 | 4.8 | 6.4 | 0.03 | 1.91 | 1.30 | 93 | 1014.6 |
| 20260507181606 | 6 | 39 | 3.2 | 6.4 | 0.03 | 1.91 | 1.30 | 93 | 1014.8 |
| 20260507181505 | 6 | 40 | 3.2 | 6.4 | 0.03 | 1.91 | 1.30 | 92 | 1014.7 |
| 20260507181404 | 6 | 41 | 3.2 | 6.4 | 0.03 | 1.91 | 1.30 | 92 | 1014.7 |
| 20260507181304 | 6 | 40 | 3.2 | 6.4 | 0.03 | 1.91 | 1.30 | 93 | 1014.8 |
| 20260507181204 | 6 | 38 | 3.2 | 6.4 | 0.03 | 1.91 | 1.30 | 93 | 1014.8 |
| 20260507181104 | 6 | 36 | 3.2 | 6.4 | 0.03 | 1.91 | 1.30 | 93 | 1014.8 |
| 20260507181004 | 6 | 35 | 3.2 | 6.4 | 0.03 | 1.91 | 1.30 | 93 | 1014.6 |
| 20260507180904 | 6 | 33 | 3.2 | 6.4 | 0.03 | 1.91 | 1.30 | 93 | 1015.0 |
| 20260507180804 | 6 | 31 | 3.2 | 6.4 | 0.03 | 1.91 | 1.30 | 93 | 1014.8 |
| 20260507180704 | 6 | 30 | 3.2 | 6.4 | 0.03 | 1.91 | 1.30 | 93 | 1014.7 |
| 20260507180604 | 6 | 29 | 4.8 | 6.4 | 0.03 | 1.91 | 1.30 | 93 | 1014.7 |
| 20260507180505 | 6 | 29 | 4.8 | 6.4 | 0.03 | 1.91 | 1.30 | 92 | 1014.8 |
| 20260507180406 | 6 | 31 | 4.8 | 6.4 | 0.00 | 1.88 | 1.30 | 92 | 1014.8 |
| 20260507180304 | 6 | 32 | 4.8 | 9.7 | 0.00 | 1.88 | 1.30 | 92 | 1014.8 |
| 20260507180204 | 6 | 32 | 4.8 | 9.7 | 0.00 | 1.88 | 1.30 | 92 | 1014.8 |
| 20260507180104 | 6 | 33 | 4.8 | 9.7 | 0.00 | 1.88 | 1.30 | 92 | 1014.5 |
| 20260507180005 | 6 | 34 | 6.4 | 11.3 | 0.00 | 1.88 | 1.30 | 92 | 1014.6 |
| 20260507175804 | 6 | 35 | 6.4 | 11.3 | 0.00 | 1.88 | 1.30 | 92 | 1014.6 |
| 20260507175704 | 6 | 34 | 6.4 | 11.3 | 0.00 | 1.88 | 1.30 | 92 | 1014.6 |
| 20260507175604 | 6 | 34 | 6.4 | 11.3 | 0.00 | 1.88 | 1.30 | 92 | 1014.7 |
| 20260507175505 | 6 | 33 | 6.4 | 11.3 | 0.00 | 1.88 | 1.30 | 92 | 1014.6 |
| 20260507175306 | 6 | 31 | 6.4 | 11.3 | 0.00 | 1.88 | 1.30 | 92 | 1014.7 |
| 20260507175204 | 6 | 30 | 6.4 | 11.3 | 0.00 | 1.88 | 1.30 | 92 | 1014.7 |
| 20260507175105 | 6 | 29 | 6.4 | 11.3 | 0.00 | 1.88 | 1.30 | 92 | 1014.6 |
| 20260507175005 | 6 | 29 | 6.4 | 11.3 | 0.00 | 1.88 | 1.30 | 92 | 1014.6 |
| 20260507174804 | 6 | 28 | 6.4 | 9.7 | 0.00 | 1.88 | 1.30 | 92 | 1014.6 |
| 20260507174704 | 6 | 29 | 6.4 | 9.7 | 0.00 | 1.88 | 1.30 | 92 | 1014.8 |
| 20260507174604 | 6 | 29 | 6.4 | 11.3 | 0.00 | 1.88 | 1.30 | 92 | 1014.4 |
| 20260507174504 | 6 | 30 | 6.4 | 11.3 | 0.00 | 1.88 | 1.30 | 92 | 1014.4 |
| 20260507174405 | 7 | 30 | 6.4 | 11.3 | 0.00 | 1.88 | 1.30 | 92 | 1014.7 |
| 20260507174304 | 6 | 30 | 6.4 | 11.3 | 0.00 | 1.88 | 1.30 | 92 | 1014.6 |
| 20260507174204 | 6 | 31 | 6.4 | 11.3 | 0.00 | 1.88 | 1.30 | 92 | 1014.6 |
| 20260507174104 | 7 | 31 | 6.4 | 11.3 | 0.00 | 1.88 | 1.30 | 92 | 1014.4 |
| 20260507174004 | 7 | 32 | 6.4 | 11.3 | 0.00 | 1.88 | 1.30 | 92 | 1014.5 |
| 20260507173904 | 7 | 32 | 6.4 | 11.3 | 0.00 | 1.88 | 1.30 | 92 | 1014.5 |
| 20260507173804 | 7 | 34 | 6.4 | 11.3 | 0.00 | 1.88 | 1.30 | 92 | 1014.5 |
| 20260507173605 | 7 | 34 | 6.4 | 11.3 | 0.00 | 1.88 | 1.30 | 92 | 1014.6 |
| 20260507173504 | 7 | 34 | 6.4 | 9.7 | 0.00 | 1.88 | 1.30 | 92 | 1014.5 |
| 20260507173404 | 7 | 35 | 4.8 | 9.7 | 0.00 | 1.88 | 1.30 | 92 | 1014.4 |
| 20260507173313 | 7 | 36 | 4.8 | 9.7 | 0.00 | 1.88 | 1.30 | 92 | 1014.5 |
| 20260507173204 | 7 | 36 | 4.8 | 9.7 | 0.00 | 1.88 | 1.30 | 92 | 1014.4 |
| 20260507173005 | 7 | 39 | 3.2 | 9.7 | 0.00 | 1.88 | 1.30 | 92 | 1014.6 |
| 20260507172904 | 7 | 40 | 3.2 | 6.4 | 0.00 | 1.88 | 1.30 | 92 | 1014.3 |
| 20260507172804 | 7 | 39 | 3.2 | 6.4 | 0.00 | 1.88 | 1.30 | 92 | 1014.4 |
| 20260507172705 | 7 | 37 | 3.2 | 6.4 | 0.00 | 1.88 | 1.30 | 92 | 1014.4 |
| 20260507172604 | 7 | 39 | 3.2 | 4.8 | 0.00 | 1.88 | 1.30 | 92 | 1014.5 |
| 20260507172504 | 7 | 40 | 3.2 | 4.8 | 0.00 | 1.88 | 1.30 | 92 | 1014.6 |
| 20260507172404 | 7 | 41 | 3.2 | 6.4 | 0.00 | 1.88 | 1.30 | 92 | 1014.5 |
| 20260507172307 | 7 | 42 | 3.2 | 6.4 | 0.00 | 1.88 | 1.30 | 92 | 1014.4 |
| 20260507172204 | 7 | 45 | 3.2 | 6.4 | 0.00 | 1.88 | 1.30 | 92 | 1014.4 |
| 20260507172104 | 7 | 45 | 3.2 | 6.4 | 0.00 | 1.88 | 1.27 | 92 | 1014.4 |
| 20260507172004 | 7 | 42 | 3.2 | 6.4 | 0.00 | 1.88 | 1.27 | 92 | 1014.3 |
| 20260507171905 | 7 | 42 | 3.2 | 6.4 | 0.00 | 1.88 | 1.27 | 92 | 1014.3 |
| 20260507171806 | 7 | 45 | 3.2 | 6.4 | 0.00 | 1.88 | 1.27 | 92 | 1014.3 |
| 20260507171704 | 7 | 48 | 3.2 | 6.4 | 0.00 | 1.88 | 1.27 | 92 | 1014.3 |
| 20260507171604 | 7 | 49 | 3.2 | 6.4 | 0.00 | 1.88 | 1.27 | 92 | 1014.1 |
| 20260507171504 | 7 | 49 | 3.2 | 6.4 | 0.00 | 1.88 | 1.27 | 92 | 1014.3 |
| 20260507171304 | 7 | 51 | 3.2 | 6.4 | 0.00 | 1.88 | 1.27 | 92 | 1014.3 |
| 20260507171206 | 7 | 50 | 3.2 | 6.4 | 0.00 | 1.88 | 1.27 | 92 | 1014.4 |
| 20260507171105 | 7 | 50 | 3.2 | 6.4 | 0.00 | 1.88 | 1.27 | 92 | 1014.4 |
| 20260507170904 | 7 | 55 | 1.6 | 4.8 | 0.00 | 1.88 | 1.27 | 92 | 1014.3 |
| 20260507170804 | 7 | 56 | 1.6 | 4.8 | 0.00 | 1.91 | 1.27 | 92 | 1014.1 |
| 20260507170705 | 7 | 56 | 1.6 | 4.8 | 0.00 | 1.91 | 1.27 | 92 | 1014.1 |
| 20260507170604 | 7 | 55 | 1.6 | 4.8 | 0.00 | 1.91 | 1.27 | 92 | 1014.2 |
| 20260507170506 | 7 | 56 | 1.6 | 4.8 | 0.00 | 1.91 | 1.27 | 92 | 1014.3 |
| 20260507170404 | 7 | 54 | 1.6 | 4.8 | 0.00 | 1.91 | 1.27 | 92 | 1014.2 |
| 20260507170304 | 7 | 53 | 1.6 | 4.8 | 0.00 | 1.91 | 1.27 | 92 | 1014.1 |
| 20260507170204 | 7 | 53 | 1.6 | 4.8 | 0.00 | 1.91 | 1.27 | 92 | 1014.2 |
| 20260507170104 | 7 | 53 | 1.6 | 4.8 | 0.00 | 1.91 | 1.27 | 92 | 1014.3 |
| 20260507165904 | 7 | 49 | 1.6 | 6.4 | 0.00 | 1.91 | 1.27 | 92 | 1014.2 |
| 20260507165804 | 7 | 50 | 1.6 | 6.4 | 0.00 | 1.91 | 1.27 | 92 | 1014.3 |
| 20260507165704 | 7 | 50 | 1.6 | 6.4 | 0.00 | 1.91 | 1.27 | 92 | 1014.3 |
| 20260507165604 | 7 | 51 | 1.6 | 6.4 | 0.00 | 1.91 | 1.27 | 92 | 1014.3 |
| 20260507165505 | 7 | 49 | 3.2 | 6.4 | 0.00 | 1.91 | 1.27 | 92 | 1014.3 |
| 20260507165404 | 7 | 51 | 3.2 | 6.4 | 0.00 | 1.91 | 1.27 | 92 | 1014.1 |
| 20260507165306 | 7 | 52 | 3.2 | 6.4 | 0.00 | 1.91 | 1.27 | 92 | 1014.1 |
| 20260507165204 | 7 | 52 | 3.2 | 6.4 | 0.00 | 1.91 | 1.27 | 92 | 1014.1 |
| 20260507165105 | 7 | 51 | 3.2 | 6.4 | 0.00 | 1.91 | 1.27 | 92 | 1014.1 |
| 20260507165011 | 7 | 51 | 3.2 | 11.3 | 0.00 | 1.91 | 1.27 | 92 | 1014.2 |
| 20260507165005 | 7 | 50 | 3.2 | 11.3 | 0.00 | 1.91 | 1.27 | 92 | 1014.2 |
| 20260507164904 | 7 | 50 | 3.2 | 11.3 | 0.00 | 1.91 | 1.27 | 92 | 1014.3 |
| 20260507164704 | 7 | 46 | 4.8 | 11.3 | 0.00 | 1.91 | 1.27 | 92 | 1014.0 |
| 20260507164605 | 7 | 44 | 4.8 | 11.3 | 0.00 | 1.91 | 1.27 | 92 | 1014.2 |
| 20260507164504 | 7 | 45 | 4.8 | 11.3 | 0.00 | 1.91 | 1.27 | 92 | 1014.1 |
| 20260507164304 | 7 | 43 | 4.8 | 11.3 | 0.00 | 1.91 | 1.27 | 92 | 1014.0 |
| 20260507164204 | 7 | 44 | 4.8 | 11.3 | 0.00 | 1.91 | 1.27 | 92 | 1014.1 |
| 20260507164104 | 7 | 45 | 4.8 | 11.3 | 0.00 | 1.91 | 1.27 | 92 | 1014.0 |
| 20260507164004 | 7 | 45 | 4.8 | 9.7 | 0.00 | 1.91 | 1.27 | 92 | 1014.2 |
| 20260507163904 | 7 | 46 | 4.8 | 9.7 | 0.03 | 1.91 | 1.27 | 92 | 1014.1 |
| 20260507163804 | 7 | 47 | 4.8 | 9.7 | 0.03 | 1.91 | 1.27 | 92 | 1014.1 |
| 20260507163704 | 7 | 46 | 4.8 | 9.7 | 0.03 | 1.91 | 1.27 | 92 | 1014.0 |
| 20260507163604 | 7 | 46 | 6.4 | 9.7 | 0.03 | 1.91 | 1.27 | 92 | 1014.1 |
| 20260507163504 | 7 | 46 | 6.4 | 9.7 | 0.03 | 1.91 | 1.27 | 92 | 1014.0 |
| 20260507163404 | 7 | 46 | 6.4 | 9.7 | 0.03 | 1.91 | 1.27 | 92 | 1014.0 |
| 20260507163304 | 7 | 46 | 6.4 | 9.7 | 0.03 | 1.91 | 1.27 | 92 | 1014.1 |
| 20260507163204 | 7 | 45 | 6.4 | 9.7 | 0.03 | 1.91 | 1.27 | 92 | 1014.2 |
| 20260507163104 | 7 | 44 | 6.4 | 11.3 | 0.03 | 1.91 | 1.27 | 92 | 1014.0 |
| 20260507163005 | 7 | 41 | 6.4 | 11.3 | 0.03 | 1.91 | 1.27 | 92 | 1014.2 |
| 20260507162904 | 7 | 38 | 6.4 | 11.3 | 0.03 | 1.91 | 1.27 | 92 | 1014.1 |
| 20260507162804 | 7 | 36 | 6.4 | 11.3 | 0.03 | 1.91 | 1.27 | 92 | 1014.0 |
| 20260507162704 | 7 | 33 | 6.4 | 11.3 | 0.03 | 1.91 | 1.27 | 92 | 1014.1 |
| 20260507162604 | 7 | 32 | 6.4 | 11.3 | 0.03 | 1.91 | 1.27 | 92 | 1013.9 |
| 20260507162504 | 7 | 31 | 8.0 | 11.3 | 0.03 | 1.91 | 1.27 | 92 | 1013.7 |
| 20260507162404 | 7 | 30 | 8.0 | 11.3 | 0.03 | 1.91 | 1.27 | 92 | 1013.9 |
| 20260507162204 | 7 | 33 | 6.4 | 11.3 | 0.03 | 1.91 | 1.27 | 92 | 1014.2 |
| 20260507162104 | 7 | 32 | 6.4 | 11.3 | 0.03 | 1.91 | 1.27 | 92 | 1013.9 |
| 20260507162007 | 7 | 36 | 6.4 | 11.3 | 0.03 | 1.91 | 1.27 | 92 | 1014.0 |
| 20260507161905 | 7 | 39 | 6.4 | 11.3 | 0.03 | 1.91 | 1.27 | 92 | 1014.0 |
| 20260507161805 | 7 | 43 | 6.4 | 11.3 | 0.03 | 1.91 | 1.27 | 92 | 1013.9 |
| 20260507161705 | 7 | 46 | 6.4 | 12.9 | 0.03 | 1.91 | 1.27 | 92 | 1013.9 |
| 20260507161605 | 7 | 45 | 6.4 | 14.5 | 0.03 | 1.91 | 1.27 | 92 | 1013.9 |
| 20260507161504 | 7 | 45 | 6.4 | 14.5 | 0.03 | 1.91 | 1.27 | 92 | 1013.9 |
| 20260507161404 | 7 | 46 | 6.4 | 14.5 | 0.03 | 1.91 | 1.27 | 92 | 1013.8 |
| 20260507161311 | 7 | 43 | 6.4 | 14.5 | 0.03 | 1.91 | 1.27 | 92 | 1013.8 |
| 20260507161204 | 7 | 40 | 6.4 | 14.5 | 0.03 | 1.91 | 1.27 | 92 | 1014.0 |
| 20260507161004 | 7 | 36 | 8.0 | 14.5 | 0.03 | 1.91 | 1.27 | 92 | 1014.1 |
| 20260507160904 | 7 | 35 | 8.0 | 14.5 | 0.03 | 1.91 | 1.27 | 92 | 1014.1 |
| 20260507160811 | 7 | 34 | 8.0 | 14.5 | 0.03 | 1.91 | 1.27 | 92 | 1013.9 |
| 20260507160804 | 7 | 33 | 8.0 | 14.5 | 0.03 | 1.91 | 1.27 | 92 | 1013.9 |
| 20260507160704 | 7 | 33 | 8.0 | 14.5 | 0.03 | 1.91 | 1.27 | 92 | 1014.0 |
| 20260507160611 | 7 | 35 | 8.0 | 14.5 | 0.03 | 1.91 | 1.27 | 92 | 1013.8 |
| 20260507160505 | 7 | 37 | 8.0 | 14.5 | 0.03 | 1.91 | 1.27 | 92 | 1013.8 |
| 20260507160411 | 7 | 37 | 8.0 | 14.5 | 0.05 | 1.91 | 1.27 | 91 | 1013.8 |
| 20260507160305 | 7 | 37 | 8.0 | 14.5 | 0.05 | 1.91 | 1.27 | 91 | 1013.9 |
| 20260507160104 | 7 | 38 | 8.0 | 16.1 | 0.03 | 1.88 | 1.27 | 92 | 1013.9 |
| 20260507160005 | 7 | 39 | 8.0 | 16.1 | 0.03 | 1.88 | 1.27 | 91 | 1013.9 |
| 20260507155904 | 7 | 41 | 6.4 | 16.1 | 0.03 | 1.88 | 1.27 | 91 | 1014.0 |
| 20260507155804 | 7 | 45 | 6.4 | 16.1 | 0.03 | 1.88 | 1.27 | 92 | 1013.9 |
| 20260507155704 | 7 | 47 | 6.4 | 16.1 | 0.03 | 1.88 | 1.27 | 92 | 1014.1 |
| 20260507155504 | 7 | 45 | 6.4 | 16.1 | 0.05 | 1.88 | 1.27 | 92 | 1013.7 |
| 20260507155404 | 7 | 45 | 6.4 | 16.1 | 0.05 | 1.88 | 1.27 | 92 | 1014.0 |
| 20260507155306 | 7 | 46 | 6.4 | 16.1 | 0.05 | 1.88 | 1.27 | 92 | 1013.9 |
| 20260507155204 | 7 | 48 | 6.4 | 16.1 | 0.05 | 1.88 | 1.27 | 92 | 1013.9 |
| 20260507155104 | 7 | 51 | 4.8 | 11.3 | 0.05 | 1.88 | 1.27 | 92 | 1014.0 |
| 20260507155004 | 7 | 50 | 6.4 | 12.9 | 0.05 | 1.88 | 1.27 | 92 | 1013.8 |
| 20260507154904 | 7 | 49 | 6.4 | 12.9 | 0.05 | 1.88 | 1.27 | 92 | 1013.8 |
| 20260507154804 | 7 | 48 | 6.4 | 12.9 | 0.05 | 1.88 | 1.27 | 92 | 1013.8 |
| 20260507154704 | 7 | 50 | 6.4 | 12.9 | 0.05 | 1.88 | 1.27 | 92 | 1013.7 |
| 20260507154504 | 7 | 47 | 8.0 | 12.9 | 0.05 | 1.88 | 1.27 | 92 | 1013.8 |
| 20260507154404 | 7 | 47 | 8.0 | 12.9 | 0.05 | 1.88 | 1.27 | 92 | 1013.8 |
| 20260507154304 | 7 | 47 | 8.0 | 12.9 | 0.05 | 1.88 | 1.27 | 92 | 1013.7 |
| 20260507154204 | 7 | 48 | 8.0 | 12.9 | 0.05 | 1.88 | 1.27 | 92 | 1013.8 |
| 20260507154104 | 7 | 47 | 8.0 | 12.9 | 0.05 | 1.88 | 1.27 | 92 | 1013.6 |
| 20260507154004 | 7 | 45 | 8.0 | 12.9 | 0.05 | 1.88 | 1.27 | 92 | 1013.7 |
| 20260507153904 | 7 | 43 | 8.0 | 12.9 | 0.05 | 1.88 | 1.27 | 92 | 1013.8 |
| 20260507153804 | 7 | 42 | 8.0 | 12.9 | 0.05 | 1.88 | 1.27 | 92 | 1013.7 |
| 20260507153704 | 7 | 40 | 8.0 | 12.9 | 0.05 | 1.88 | 1.27 | 92 | 1013.8 |
| 20260507153604 | 7 | 39 | 8.0 | 12.9 | 0.05 | 1.88 | 1.27 | 92 | 1013.6 |
| 20260507153504 | 7 | 40 | 8.0 | 12.9 | 0.05 | 1.88 | 1.27 | 92 | 1013.7 |
| 20260507153404 | 7 | 39 | 8.0 | 12.9 | 0.05 | 1.88 | 1.27 | 92 | 1013.6 |
| 20260507153304 | 7 | 37 | 8.0 | 12.9 | 0.05 | 1.88 | 1.27 | 92 | 1013.8 |
| 20260507153104 | 7 | 36 | 8.0 | 14.5 | 0.05 | 1.88 | 1.27 | 93 | 1013.6 |
| 20260507153004 | 7 | 38 | 8.0 | 16.1 | 0.05 | 1.88 | 1.27 | 93 | 1013.8 |
| 20260507152904 | 7 | 37 | 8.0 | 16.1 | 0.05 | 1.88 | 1.27 | 92 | 1013.7 |
| 20260507152811 | 7 | 37 | 9.7 | 17.7 | 0.05 | 1.88 | 1.27 | 93 | 1013.6 |
| 20260507152704 | 7 | 38 | 9.7 | 17.7 | 0.05 | 1.88 | 1.27 | 92 | 1013.7 |
| 20260507152504 | 7 | 39 | 9.7 | 17.7 | 0.05 | 1.88 | 1.27 | 92 | 1013.6 |
| 20260507152404 | 7 | 41 | 11.3 | 17.7 | 0.05 | 1.88 | 1.27 | 92 | 1013.8 |
| 20260507152204 | 7 | 42 | 11.3 | 17.7 | 0.05 | 1.88 | 1.27 | 92 | 1013.7 |
| 20260507152104 | 7 | 42 | 11.3 | 17.7 | 0.05 | 1.88 | 1.27 | 92 | 1013.5 |
| 20260507151904 | 7 | 43 | 9.7 | 17.7 | 0.05 | 1.88 | 1.27 | 93 | 1013.6 |
| 20260507151804 | 7 | 44 | 9.7 | 16.1 | 0.05 | 1.88 | 1.27 | 93 | 1013.6 |
| 20260507151704 | 7 | 44 | 9.7 | 16.1 | 0.05 | 1.88 | 1.24 | 93 | 1013.5 |
| 20260507151604 | 7 | 43 | 8.0 | 16.1 | 0.05 | 1.88 | 1.24 | 92 | 1013.5 |
| 20260507151504 | 7 | 44 | 8.0 | 16.1 | 0.05 | 1.88 | 1.24 | 93 | 1013.3 |
| 20260507151404 | 7 | 43 | 8.0 | 16.1 | 0.05 | 1.88 | 1.24 | 93 | 1013.5 |
| 20260507151304 | 7 | 45 | 8.0 | 16.1 | 0.05 | 1.88 | 1.24 | 93 | 1013.6 |
| 20260507151204 | 7 | 44 | 8.0 | 16.1 | 0.05 | 1.88 | 1.24 | 93 | 1013.6 |
| 20260507151104 | 7 | 44 | 8.0 | 14.5 | 0.05 | 1.88 | 1.24 | 92 | 1013.5 |
| 20260507151004 | 7 | 47 | 6.4 | 14.5 | 0.08 | 1.88 | 1.24 | 92 | 1013.6 |
| 20260507150904 | 7 | 47 | 8.0 | 14.5 | 0.08 | 1.88 | 1.24 | 92 | 1013.5 |
| 20260507150804 | 7 | 49 | 8.0 | 14.5 | 0.08 | 1.88 | 1.24 | 92 | 1013.5 |
| 20260507150704 | 7 | 49 | 8.0 | 14.5 | 0.08 | 1.88 | 1.24 | 92 | 1013.6 |
| 20260507150604 | 7 | 46 | 8.0 | 14.5 | 0.08 | 1.88 | 1.24 | 93 | 1013.8 |
| 20260507150504 | 7 | 46 | 8.0 | 14.5 | 0.08 | 1.88 | 1.24 | 93 | 1013.6 |
| 20260507150404 | 7 | 45 | 8.0 | 14.5 | 0.08 | 1.85 | 1.24 | 93 | 1013.5 |
| 20260507150304 | 7 | 43 | 8.0 | 14.5 | 0.08 | 1.85 | 1.24 | 93 | 1013.4 |
| 20260507150204 | 7 | 45 | 8.0 | 14.5 | 0.08 | 1.85 | 1.24 | 93 | 1013.5 |
| 20260507150104 | 7 | 43 | 9.7 | 16.1 | 0.08 | 1.85 | 1.24 | 93 | 1013.5 |
| 20260507150006 | 7 | 41 | 9.7 | 16.1 | 0.08 | 1.85 | 1.24 | 93 | 1013.6 |
| 20260507145904 | 7 | 41 | 9.7 | 16.1 | 0.08 | 1.85 | 1.24 | 93 | 1013.4 |
| 20260507145804 | 7 | 39 | 9.7 | 16.1 | 0.08 | 1.85 | 1.24 | 92 | 1013.3 |
| 20260507145704 | 7 | 40 | 9.7 | 16.1 | 0.10 | 1.85 | 1.24 | 93 | 1013.4 |
| 20260507145604 | 7 | 39 | 9.7 | 16.1 | 0.08 | 1.85 | 1.22 | 93 | 1013.5 |
| 20260507145504 | 7 | 39 | 9.7 | 16.1 | 0.08 | 1.85 | 1.22 | 93 | 1013.6 |
| 20260507145404 | 7 | 38 | 9.7 | 16.1 | 0.08 | 1.85 | 1.22 | 92 | 1013.5 |
| 20260507145306 | 7 | 40 | 9.7 | 16.1 | 0.08 | 1.85 | 1.22 | 92 | 1013.4 |
| 20260507145204 | 7 | 40 | 9.7 | 16.1 | 0.10 | 1.85 | 1.22 | 93 | 1013.5 |
| 20260507145004 | 7 | 42 | 9.7 | 14.5 | 0.10 | 1.85 | 1.22 | 93 | 1013.4 |
| 20260507144904 | 7 | 43 | 9.7 | 14.5 | 0.10 | 1.85 | 1.22 | 93 | 1013.6 |
| 20260507144804 | 7 | 44 | 9.7 | 14.5 | 0.10 | 1.85 | 1.22 | 93 | 1013.5 |
| 20260507144704 | 7 | 44 | 9.7 | 14.5 | 0.08 | 1.83 | 1.22 | 92 | 1013.3 |
| 20260507144604 | 7 | 47 | 9.7 | 14.5 | 0.08 | 1.83 | 1.22 | 92 | 1013.4 |
| 20260507144504 | 7 | 46 | 9.7 | 16.1 | 0.10 | 1.83 | 1.22 | 92 | 1013.5 |
| 20260507144404 | 7 | 47 | 9.7 | 16.1 | 0.10 | 1.83 | 1.22 | 92 | 1013.6 |
| 20260507144304 | 7 | 44 | 9.7 | 16.1 | 0.10 | 1.83 | 1.22 | 92 | 1013.4 |
| 20260507144204 | 7 | 42 | 9.7 | 16.1 | 0.10 | 1.83 | 1.22 | 92 | 1013.4 |
| 20260507144104 | 7 | 41 | 9.7 | 16.1 | 0.10 | 1.83 | 1.22 | 92 | 1013.5 |
| 20260507144004 | 7 | 40 | 11.3 | 16.1 | 0.10 | 1.83 | 1.22 | 92 | 1013.4 |
| 20260507143904 | 7 | 38 | 11.3 | 16.1 | 0.10 | 1.83 | 1.22 | 92 | 1013.4 |
| 20260507143811 | 7 | 37 | 11.3 | 16.1 | 0.10 | 1.83 | 1.22 | 92 | 1013.4 |
| 20260507143804 | 7 | 36 | 11.3 | 16.1 | 0.10 | 1.83 | 1.22 | 92 | 1013.4 |
| 20260507143504 | 7 | 35 | 11.3 | 17.7 | 0.10 | 1.83 | 1.22 | 92 | 1013.2 |
| 20260507143404 | 7 | 33 | 12.9 | 17.7 | 0.10 | 1.83 | 1.22 | 92 | 1013.5 |
| 20260507143204 | 7 | 33 | 12.9 | 17.7 | 0.10 | 1.83 | 1.22 | 92 | 1013.3 |
| 20260507143104 | 7 | 33 | 12.9 | 17.7 | 0.10 | 1.83 | 1.22 | 92 | 1013.4 |
| 20260507143004 | 7 | 34 | 12.9 | 20.9 | 0.10 | 1.83 | 1.22 | 92 | 1013.2 |
| 20260507142904 | 7 | 34 | 12.9 | 20.9 | 0.10 | 1.83 | 1.22 | 92 | 1013.3 |
| 20260507142804 | 7 | 33 | 12.9 | 20.9 | 0.10 | 1.83 | 1.19 | 92 | 1013.3 |
| 20260507142704 | 7 | 31 | 12.9 | 20.9 | 0.10 | 1.83 | 1.19 | 92 | 1013.3 |
| 20260507142604 | 7 | 30 | 12.9 | 20.9 | 0.10 | 1.83 | 1.19 | 92 | 1013.2 |
| 20260507142504 | 7 | 30 | 12.9 | 20.9 | 0.10 | 1.83 | 1.19 | 92 | 1013.2 |
| 20260507142405 | 7 | 32 | 12.9 | 20.9 | 0.10 | 1.83 | 1.19 | 92 | 1013.3 |
| 20260507142204 | 8 | 32 | 12.9 | 20.9 | 0.10 | 1.83 | 1.19 | 92 | 1013.2 |
| 20260507142104 | 8 | 30 | 11.3 | 20.9 | 0.10 | 1.83 | 1.19 | 93 | 1013.3 |
| 20260507142004 | 8 | 29 | 11.3 | 17.7 | 0.10 | 1.83 | 1.19 | 93 | 1013.2 |
| 20260507141904 | 8 | 30 | 11.3 | 16.1 | 0.10 | 1.83 | 1.19 | 93 | 1013.1 |
| 20260507141804 | 8 | 32 | 11.3 | 16.1 | 0.10 | 1.83 | 1.19 | 93 | 1013.3 |
| 20260507141704 | 8 | 35 | 11.3 | 16.1 | 0.10 | 1.83 | 1.19 | 93 | 1013.1 |
| 20260507141504 | 8 | 36 | 11.3 | 20.9 | 0.10 | 1.80 | 1.19 | 93 | 1013.0 |
| 20260507141404 | 8 | 34 | 11.3 | 20.9 | 0.10 | 1.80 | 1.19 | 93 | 1013.2 |
| 20260507141304 | 8 | 33 | 11.3 | 20.9 | 0.10 | 1.80 | 1.19 | 93 | 1013.4 |
| 20260507141104 | 8 | 32 | 11.3 | 20.9 | 0.10 | 1.80 | 1.19 | 93 | 1013.1 |
| 20260507141006 | 8 | 32 | 11.3 | 20.9 | 0.10 | 1.80 | 1.19 | 93 | 1013.3 |
| 20260507140904 | 8 | 30 | 11.3 | 20.9 | 0.10 | 1.80 | 1.17 | 93 | 1013.0 |
| 20260507140804 | 8 | 28 | 11.3 | 20.9 | 0.10 | 1.80 | 1.17 | 93 | 1013.3 |
| 20260507140704 | 8 | 28 | 11.3 | 20.9 | 0.10 | 1.80 | 1.17 | 93 | 1013.3 |
| 20260507140604 | 8 | 27 | 11.3 | 20.9 | 0.10 | 1.80 | 1.17 | 93 | 1013.3 |
| 20260507140504 | 8 | 26 | 11.3 | 17.7 | 0.10 | 1.80 | 1.17 | 92 | 1013.3 |
| 20260507140404 | 8 | 27 | 11.3 | 16.1 | 0.10 | 1.78 | 1.17 | 92 | 1013.1 |
| 20260507140304 | 8 | 27 | 11.3 | 16.1 | 0.10 | 1.78 | 1.17 | 92 | 1013.1 |
| 20260507140204 | 8 | 28 | 9.7 | 16.1 | 0.10 | 1.78 | 1.17 | 92 | 1013.1 |
| 20260507140104 | 8 | 27 | 9.7 | 16.1 | 0.10 | 1.78 | 1.17 | 92 | 1013.2 |
| 20260507140005 | 8 | 26 | 9.7 | 16.1 | 0.10 | 1.78 | 1.17 | 92 | 1013.2 |
| 20260507135904 | 8 | 26 | 9.7 | 16.1 | 0.13 | 1.78 | 1.17 | 92 | 1013.2 |
| 20260507135804 | 8 | 27 | 9.7 | 16.1 | 0.13 | 1.78 | 1.17 | 92 | 1013.3 |
| 20260507135604 | 8 | 27 | 9.7 | 16.1 | 0.10 | 1.78 | 1.14 | 93 | 1013.2 |
| 20260507135505 | 8 | 27 | 9.7 | 16.1 | 0.10 | 1.78 | 1.14 | 93 | 1013.1 |
| 20260507135404 | 8 | 27 | 9.7 | 16.1 | 0.10 | 1.78 | 1.14 | 93 | 1013.3 |
| 20260507135306 | 8 | 29 | 11.3 | 16.1 | 0.10 | 1.78 | 1.14 | 93 | 1013.1 |
| 20260507135204 | 8 | 30 | 11.3 | 16.1 | 0.10 | 1.75 | 1.14 | 93 | 1013.2 |
| 20260507135111 | 8 | 31 | 11.3 | 16.1 | 0.10 | 1.75 | 1.14 | 93 | 1013.1 |
| 20260507135104 | 8 | 31 | 11.3 | 16.1 | 0.10 | 1.75 | 1.14 | 93 | 1013.1 |
| 20260507135004 | 8 | 32 | 11.3 | 16.1 | 0.10 | 1.75 | 1.14 | 93 | 1013.1 |
| 20260507134704 | 8 | 33 | 11.3 | 16.1 | 0.10 | 1.75 | 1.14 | 93 | 1013.3 |
| 20260507134604 | 8 | 33 | 11.3 | 16.1 | 0.10 | 1.75 | 1.14 | 93 | 1013.3 |
| 20260507134504 | 8 | 33 | 11.3 | 16.1 | 0.10 | 1.75 | 1.12 | 93 | 1013.2 |
| 20260507134404 | 8 | 33 | 11.3 | 16.1 | 0.10 | 1.75 | 1.12 | 93 | 1013.2 |
| 20260507134304 | 8 | 33 | 11.3 | 16.1 | 0.10 | 1.75 | 1.12 | 93 | 1013.2 |
| 20260507134204 | 8 | 33 | 11.3 | 16.1 | 0.10 | 1.75 | 1.12 | 93 | 1013.0 |
| 20260507134104 | 8 | 33 | 11.3 | 16.1 | 0.10 | 1.75 | 1.12 | 93 | 1013.2 |
| 20260507134005 | 8 | 33 | 11.3 | 16.1 | 0.10 | 1.75 | 1.12 | 93 | 1013.1 |
| 20260507133904 | 8 | 33 | 11.3 | 12.9 | 0.10 | 1.75 | 1.12 | 93 | 1013.0 |
| 20260507133804 | 8 | 33 | 11.3 | 12.9 | 0.10 | 1.75 | 1.12 | 93 | 1013.0 |
| 20260507133704 | 8 | 33 | 11.3 | 12.9 | 0.10 | 1.75 | 1.12 | 93 | 1013.0 |
| 20260507133604 | 8 | 33 | 11.3 | 12.9 | 0.10 | 1.75 | 1.12 | 93 | 1013.1 |
| 20260507133505 | 8 | 34 | 11.3 | 12.9 | 0.10 | 1.75 | 1.12 | 93 | 1013.1 |
| 20260507133404 | 8 | 35 | 11.3 | 14.5 | 0.10 | 1.75 | 1.12 | 93 | 1013.1 |
| 20260507133304 | 8 | 37 | 11.3 | 14.5 | 0.10 | 1.75 | 1.12 | 93 | 1013.0 |
| 20260507133006 | 8 | 40 | 11.3 | 14.5 | 0.08 | 1.73 | 1.12 | 92 | 1013.0 |
| 20260507132904 | 8 | 40 | 11.3 | 14.5 | 0.08 | 1.73 | 1.12 | 92 | 1013.1 |
| 20260507132804 | 8 | 38 | 11.3 | 14.5 | 0.08 | 1.73 | 1.12 | 92 | 1013.2 |
| 20260507132704 | 7 | 38 | 11.3 | 14.5 | 0.10 | 1.73 | 1.12 | 92 | 1013.0 |
| 20260507132604 | 7 | 36 | 11.3 | 14.5 | 0.08 | 1.73 | 1.09 | 92 | 1013.1 |
| 20260507132504 | 7 | 36 | 11.3 | 14.5 | 0.08 | 1.73 | 1.09 | 92 | 1013.1 |
| 20260507132404 | 8 | 37 | 11.3 | 14.5 | 0.08 | 1.73 | 1.09 | 92 | 1012.8 |
| 20260507132307 | 8 | 37 | 11.3 | 14.5 | 0.08 | 1.73 | 1.09 | 92 | 1013.0 |
| 20260507132204 | 8 | 36 | 11.3 | 14.5 | 0.08 | 1.73 | 1.09 | 92 | 1012.9 |
| 20260507132111 | 8 | 34 | 9.7 | 14.5 | 0.08 | 1.70 | 1.09 | 92 | 1013.0 |
| 20260507132105 | 8 | 34 | 9.7 | 14.5 | 0.08 | 1.70 | 1.09 | 92 | 1013.0 |
| 20260507132004 | 8 | 33 | 9.7 | 14.5 | 0.08 | 1.70 | 1.09 | 92 | 1012.9 |
| 20260507131804 | 8 | 34 | 9.7 | 14.5 | 0.08 | 1.70 | 1.09 | 92 | 1013.0 |
| 20260507131704 | 8 | 34 | 9.7 | 14.5 | 0.08 | 1.70 | 1.09 | 92 | 1013.1 |
| 20260507131605 | 8 | 35 | 9.7 | 12.9 | 0.05 | 1.70 | 1.09 | 92 | 1012.9 |
| 20260507131505 | 8 | 34 | 9.7 | 12.9 | 0.05 | 1.70 | 1.09 | 92 | 1012.8 |
| 20260507131404 | 8 | 31 | 8.0 | 12.9 | 0.05 | 1.70 | 1.09 | 92 | 1012.9 |
| 20260507131304 | 8 | 28 | 8.0 | 12.9 | 0.05 | 1.70 | 1.09 | 92 | 1013.1 |
| 20260507131204 | 8 | 27 | 8.0 | 12.9 | 0.05 | 1.70 | 1.09 | 92 | 1013.0 |
| 20260507131104 | 8 | 28 | 8.0 | 12.9 | 0.05 | 1.70 | 1.09 | 92 | 1012.8 |
| 20260507131005 | 8 | 29 | 8.0 | 12.9 | 0.05 | 1.70 | 1.07 | 92 | 1012.9 |
| 20260507130904 | 8 | 30 | 8.0 | 12.9 | 0.05 | 1.70 | 1.07 | 92 | 1012.8 |
| 20260507130804 | 8 | 31 | 8.0 | 12.9 | 0.05 | 1.70 | 1.07 | 92 | 1012.7 |
| 20260507130704 | 8 | 32 | 8.0 | 12.9 | 0.05 | 1.70 | 1.07 | 92 | 1012.8 |
| 20260507130504 | 8 | 35 | 6.4 | 12.9 | 0.05 | 1.70 | 1.07 | 92 | 1012.9 |
| 20260507130411 | 8 | 35 | 6.4 | 12.9 | 0.05 | 1.68 | 1.07 | 92 | 1012.9 |
| 20260507130404 | 8 | 36 | 6.4 | 12.9 | 0.05 | 1.68 | 1.07 | 92 | 1012.9 |
| 20260507130304 | 8 | 35 | 6.4 | 12.9 | 0.05 | 1.68 | 1.07 | 92 | 1013.0 |
| 20260507130212 | 8 | 38 | 6.4 | 11.3 | 0.05 | 1.68 | 1.07 | 92 | 1012.9 |
| 20260507130104 | 8 | 38 | 6.4 | 11.3 | 0.05 | 1.68 | 1.07 | 92 | 1012.8 |
| 20260507125904 | 8 | 34 | 6.4 | 11.3 | 0.05 | 1.68 | 1.04 | 92 | 1012.7 |
| 20260507125804 | 8 | 34 | 6.4 | 11.3 | 0.05 | 1.68 | 1.04 | 92 | 1012.5 |
| 20260507125704 | 8 | 33 | 6.4 | 11.3 | 0.05 | 1.68 | 1.04 | 93 | 1012.9 |
| 20260507125605 | 8 | 34 | 6.4 | 11.3 | 0.05 | 1.68 | 1.04 | 93 | 1012.7 |
| 20260507125504 | 8 | 33 | 6.4 | 11.3 | 0.05 | 1.68 | 1.04 | 93 | 1012.7 |
| 20260507125404 | 8 | 32 | 6.4 | 11.3 | 0.05 | 1.68 | 1.04 | 93 | 1012.7 |
| 20260507125306 | 8 | 34 | 6.4 | 11.3 | 0.03 | 1.65 | 1.04 | 93 | 1012.7 |
| 20260507125204 | 8 | 34 | 6.4 | 11.3 | 0.03 | 1.65 | 1.04 | 93 | 1012.7 |
| 20260507125111 | 8 | 31 | 6.4 | 11.3 | 0.03 | 1.65 | 1.04 | 93 | 1012.8 |
| 20260507125004 | 8 | 33 | 4.8 | 11.3 | 0.03 | 1.65 | 1.04 | 93 | 1012.7 |
| 20260507124804 | 8 | 36 | 4.8 | 11.3 | 0.03 | 1.65 | 1.04 | 93 | 1012.5 |
| 20260507124705 | 8 | 37 | 4.8 | 12.9 | 0.03 | 1.65 | 1.04 | 93 | 1012.7 |
| 20260507124606 | 8 | 35 | 6.4 | 12.9 | 0.03 | 1.65 | 1.04 | 93 | 1012.8 |
| 20260507124504 | 8 | 36 | 4.8 | 12.9 | 0.03 | 1.65 | 1.04 | 93 | 1012.5 |
| 20260507124404 | 8 | 39 | 4.8 | 12.9 | 0.03 | 1.65 | 1.04 | 93 | 1012.7 |
| 20260507124205 | 8 | 39 | 4.8 | 12.9 | 0.03 | 1.65 | 1.04 | 93 | 1012.5 |
| 20260507124104 | 8 | 41 | 4.8 | 12.9 | 0.03 | 1.65 | 1.04 | 93 | 1012.8 |
| 20260507124005 | 8 | 40 | 4.8 | 12.9 | 0.03 | 1.65 | 1.04 | 93 | 1012.5 |
| 20260507123904 | 8 | 40 | 4.8 | 12.9 | 0.03 | 1.65 | 1.04 | 93 | 1012.5 |
| 20260507123811 | 8 | 40 | 4.8 | 12.9 | 0.03 | 1.65 | 1.04 | 93 | 1012.5 |
| 20260507123804 | 8 | 40 | 4.8 | 12.9 | 0.03 | 1.65 | 1.04 | 93 | 1012.5 |
| 20260507123504 | 8 | 39 | 4.8 | 6.4 | 0.03 | 1.65 | 1.04 | 93 | 1012.4 |
| 20260507123404 | 8 | 37 | 6.4 | 11.3 | 0.03 | 1.65 | 1.04 | 93 | 1012.4 |
| 20260507123204 | 8 | 39 | 6.4 | 11.3 | 0.03 | 1.65 | 1.04 | 93 | 1012.2 |
| 20260507123104 | 8 | 42 | 6.4 | 11.3 | 0.03 | 1.65 | 1.04 | 93 | 1012.4 |
| 20260507123005 | 8 | 45 | 6.4 | 11.3 | 0.03 | 1.65 | 1.04 | 93 | 1012.4 |
| 20260507122911 | 8 | 47 | 6.4 | 11.3 | 0.03 | 1.65 | 1.04 | 93 | 1012.2 |
| 20260507122904 | 8 | 48 | 6.4 | 11.3 | 0.03 | 1.65 | 1.04 | 93 | 1012.2 |
| 20260507122804 | 8 | 51 | 6.4 | 11.3 | 0.03 | 1.65 | 1.04 | 93 | 1012.4 |
| 20260507122712 | 8 | 52 | 6.4 | 11.3 | 0.03 | 1.65 | 1.02 | 93 | 1012.5 |
| 20260507122604 | 8 | 51 | 6.4 | 12.9 | 0.03 | 1.65 | 1.02 | 93 | 1012.2 |
| 20260507122411 | 8 | 49 | 6.4 | 12.9 | 0.03 | 1.65 | 1.02 | 93 | 1012.3 |
| 20260507122307 | 8 | 46 | 6.4 | 12.9 | 0.03 | 1.65 | 1.02 | 93 | 1012.3 |
| 20260507122104 | 8 | 38 | 8.0 | 12.9 | 0.03 | 1.65 | 1.02 | 93 | 1012.3 |
| 20260507122006 | 8 | 38 | 8.0 | 12.9 | 0.03 | 1.65 | 1.02 | 93 | 1012.4 |
| 20260507121904 | 8 | 37 | 8.0 | 12.9 | 0.03 | 1.65 | 1.02 | 93 | 1012.3 |
| 20260507121804 | 8 | 36 | 8.0 | 12.9 | 0.03 | 1.65 | 1.02 | 93 | 1012.3 |
| 20260507121704 | 8 | 36 | 9.7 | 12.9 | 0.03 | 1.65 | 1.02 | 93 | 1012.4 |
| 20260507121604 | 8 | 35 | 9.7 | 12.9 | 0.03 | 1.65 | 1.02 | 93 | 1012.4 |
| 20260507121504 | 8 | 35 | 9.7 | 12.9 | 0.03 | 1.65 | 1.02 | 93 | 1012.2 |
| 20260507121404 | 8 | 34 | 9.7 | 12.9 | 0.03 | 1.65 | 1.02 | 93 | 1012.2 |
| 20260507121304 | 8 | 34 | 8.0 | 12.9 | 0.03 | 1.65 | 1.02 | 93 | 1012.2 |
| 20260507121204 | 8 | 34 | 8.0 | 12.9 | 0.03 | 1.65 | 1.02 | 93 | 1012.1 |
| 20260507121104 | 8 | 35 | 8.0 | 12.9 | 0.03 | 1.65 | 1.02 | 93 | 1012.2 |
| 20260507121004 | 8 | 36 | 8.0 | 12.9 | 0.00 | 1.63 | 1.02 | 93 | 1012.1 |
| 20260507120904 | 8 | 36 | 8.0 | 12.9 | 0.00 | 1.63 | 1.02 | 93 | 1012.0 |
| 20260507120804 | 8 | 34 | 8.0 | 12.9 | 0.00 | 1.63 | 1.02 | 93 | 1012.1 |
| 20260507120704 | 8 | 32 | 8.0 | 12.9 | 0.00 | 1.63 | 1.02 | 93 | 1012.0 |
| 20260507120604 | 8 | 33 | 8.0 | 12.9 | 0.00 | 1.63 | 1.02 | 93 | 1012.2 |
| 20260507120504 | 8 | 35 | 8.0 | 12.9 | 0.00 | 1.63 | 1.02 | 93 | 1012.2 |
| 20260507120404 | 8 | 36 | 8.0 | 12.9 | 0.00 | 1.63 | 1.02 | 93 | 1012.2 |
| 20260507120304 | 8 | 40 | 8.0 | 12.9 | 0.00 | 1.63 | 1.02 | 93 | 1012.2 |
| 20260507120104 | 8 | 44 | 8.0 | 12.9 | 0.00 | 1.63 | 1.02 | 93 | 1012.0 |
| 20260507120005 | 8 | 44 | 8.0 | 12.9 | 0.00 | 1.63 | 1.02 | 93 | 1012.2 |
| 20260507115804 | 8 | 46 | 8.0 | 12.9 | 0.00 | 1.63 | 1.02 | 93 | 1012.0 |
| 20260507115705 | 8 | 47 | 8.0 | 12.9 | 0.00 | 1.63 | 1.02 | 93 | 1012.1 |
| 20260507115604 | 8 | 45 | 8.0 | 12.9 | 0.00 | 1.63 | 1.02 | 93 | 1012.1 |
| 20260507115504 | 8 | 44 | 8.0 | 12.9 | 0.00 | 1.63 | 1.02 | 93 | 1012.0 |
| 20260507115204 | 8 | 38 | 8.0 | 11.3 | 0.03 | 1.63 | 1.02 | 93 | 1012.0 |
| 20260507115104 | 8 | 36 | 8.0 | 11.3 | 0.03 | 1.63 | 1.02 | 93 | 1011.9 |
| 20260507115004 | 8 | 35 | 8.0 | 11.3 | 0.03 | 1.63 | 1.02 | 93 | 1012.1 |
| 20260507114904 | 8 | 35 | 8.0 | 11.3 | 0.03 | 1.63 | 1.02 | 93 | 1012.0 |
| 20260507114704 | 8 | 31 | 6.4 | 11.3 | 0.03 | 1.63 | 1.02 | 93 | 1012.0 |
| 20260507114604 | 8 | 31 | 6.4 | 11.3 | 0.03 | 1.63 | 1.02 | 93 | 1012.1 |
| 20260507114504 | 8 | 31 | 6.4 | 11.3 | 0.00 | 1.63 | 0.99 | 93 | 1012.0 |
| 20260507114404 | 8 | 31 | 6.4 | 11.3 | 0.00 | 1.63 | 0.99 | 93 | 1011.9 |
| 20260507114304 | 8 | 31 | 6.4 | 11.3 | 0.00 | 1.63 | 0.99 | 93 | 1012.0 |
| 20260507114212 | 8 | 31 | 6.4 | 11.3 | 0.00 | 1.63 | 0.99 | 93 | 1012.0 |
| 20260507114205 | 8 | 31 | 6.4 | 11.3 | 0.00 | 1.63 | 0.99 | 93 | 1012.0 |
| 20260507114104 | 8 | 32 | 8.0 | 11.3 | 0.00 | 1.63 | 0.99 | 93 | 1012.2 |
| 20260507113904 | 8 | 30 | 8.0 | 11.3 | 0.00 | 1.63 | 0.99 | 93 | 1011.9 |
| 20260507113804 | 8 | 30 | 8.0 | 11.3 | 0.00 | 1.63 | 0.99 | 93 | 1012.2 |
| 20260507113704 | 8 | 31 | 8.0 | 11.3 | 0.00 | 1.63 | 0.99 | 93 | 1012.1 |
| 20260507113604 | 8 | 33 | 8.0 | 11.3 | 0.00 | 1.63 | 0.99 | 93 | 1012.0 |
| 20260507113504 | 8 | 33 | 8.0 | 11.3 | 0.00 | 1.63 | 0.99 | 93 | 1012.0 |
| 20260507113404 | 8 | 35 | 6.4 | 11.3 | 0.00 | 1.63 | 0.99 | 93 | 1012.0 |
| 20260507113304 | 8 | 37 | 6.4 | 11.3 | 0.00 | 1.63 | 0.99 | 93 | 1011.9 |
| 20260507113204 | 8 | 39 | 6.4 | 11.3 | 0.00 | 1.63 | 0.99 | 93 | 1011.8 |
| 20260507113104 | 8 | 40 | 6.4 | 12.9 | 0.00 | 1.63 | 0.99 | 93 | 1011.9 |
| 20260507113005 | 8 | 41 | 6.4 | 12.9 | 0.00 | 1.63 | 0.99 | 93 | 1011.8 |
| 20260507112904 | 8 | 42 | 6.4 | 12.9 | 0.00 | 1.63 | 0.99 | 93 | 1011.7 |
| 20260507112804 | 8 | 43 | 6.4 | 12.9 | 0.00 | 1.63 | 0.99 | 93 | 1011.8 |
| 20260507112704 | 8 | 42 | 6.4 | 12.9 | 0.00 | 1.63 | 0.99 | 93 | 1012.0 |
| 20260507112404 | 8 | 41 | 6.4 | 12.9 | 0.03 | 1.63 | 0.99 | 93 | 1011.8 |
| 20260507112307 | 8 | 40 | 6.4 | 12.9 | 0.03 | 1.63 | 0.99 | 93 | 1011.8 |
| 20260507112204 | 8 | 38 | 6.4 | 12.9 | 0.03 | 1.63 | 0.99 | 93 | 1011.9 |
| 20260507112104 | 8 | 35 | 6.4 | 12.9 | 0.03 | 1.63 | 0.99 | 93 | 1011.8 |
| 20260507112011 | 8 | 33 | 6.4 | 9.7 | 0.03 | 1.63 | 0.99 | 93 | 1011.8 |
| 20260507111912 | 8 | 33 | 6.4 | 11.3 | 0.03 | 1.63 | 0.99 | 93 | 1011.9 |
| 20260507111905 | 8 | 34 | 6.4 | 11.3 | 0.03 | 1.63 | 0.99 | 93 | 1011.9 |
| 20260507111712 | 8 | 33 | 6.4 | 11.3 | 0.03 | 1.63 | 0.99 | 93 | 1011.8 |
| 20260507111604 | 8 | 32 | 6.4 | 11.3 | 0.03 | 1.63 | 0.99 | 93 | 1012.1 |
| 20260507111404 | 8 | 27 | 6.4 | 11.3 | 0.03 | 1.63 | 0.99 | 93 | 1011.8 |
| 20260507111304 | 8 | 25 | 6.4 | 11.3 | 0.03 | 1.63 | 0.99 | 93 | 1011.9 |
| 20260507111204 | 8 | 24 | 4.8 | 11.3 | 0.03 | 1.63 | 0.99 | 93 | 1012.0 |
| 20260507111104 | 8 | 26 | 4.8 | 11.3 | 0.03 | 1.63 | 0.99 | 93 | 1011.9 |
| 20260507111004 | 8 | 28 | 4.8 | 11.3 | 0.03 | 1.63 | 0.99 | 93 | 1011.7 |
| 20260507110904 | 8 | 24 | 4.8 | 6.4 | 0.03 | 1.63 | 0.99 | 93 | 1011.9 |
| 20260507110804 | 8 | 20 | 4.8 | 6.4 | 0.03 | 1.63 | 0.99 | 93 | 1011.6 |
| 20260507110711 | 8 | 15 | 4.8 | 6.4 | 0.03 | 1.63 | 0.99 | 94 | 1011.8 |
| 20260507110704 | 8 | 14 | 4.8 | 4.8 | 0.03 | 1.63 | 0.99 | 94 | 1011.8 |
| 20260507110604 | 8 | 14 | 4.8 | 4.8 | 0.03 | 1.63 | 0.99 | 94 | 1011.7 |
| 20260507110404 | 8 | 14 | 4.8 | 4.8 | 0.03 | 1.63 | 0.99 | 94 | 1011.7 |
| 20260507110304 | 8 | 52 | 9.7 | 11.3 | 0.03 | 1.63 | 0.99 | 94 | 1011.7 |
| 20260507110205 | 8 | 52 | 9.7 | 11.3 | 0.03 | 1.63 | 0.99 | 93 | 1011.7 |
| 20260507110104 | 8 | 52 | 9.7 | 11.3 | 0.03 | 1.63 | 0.99 | 93 | 1011.8 |
| 20260507110005 | 8 | 52 | 9.7 | 11.3 | 0.03 | 1.63 | 0.99 | 93 | 1011.7 |
| 20260507105904 | 8 | 52 | 9.7 | 11.3 | 0.03 | 1.63 | 0.99 | 94 | 1011.7 |
| 20260507105804 | 8 | 52 | 9.7 | 11.3 | 0.03 | 1.63 | 0.99 | 94 | 1011.7 |
| 20260507105704 | 8 | 52 | 9.7 | 11.3 | 0.03 | 1.63 | 0.99 | 94 | 1011.6 |
| 20260507105604 | 8 | 52 | 9.7 | 11.3 | 0.03 | 1.63 | 0.99 | 94 | 1011.7 |
| 20260507105505 | 8 | 52 | 9.7 | 11.3 | 0.03 | 1.63 | 0.99 | 94 | 1011.7 |
| 20260507105404 | 8 | 52 | 9.7 | 11.3 | 0.03 | 1.60 | 0.99 | 94 | 1011.7 |
| 20260507105204 | 8 | 52 | 9.7 | 11.3 | 0.03 | 1.60 | 0.99 | 94 | 1011.7 |
| 20260507105104 | 8 | 52 | 9.7 | 11.3 | 0.03 | 1.60 | 0.99 | 94 | 1011.7 |
| 20260507105005 | 8 | 52 | 9.7 | 11.3 | 0.03 | 1.60 | 0.99 | 94 | 1011.7 |
| 20260507104904 | 8 | 52 | 9.7 | 11.3 | 0.03 | 1.60 | 0.99 | 94 | 1011.7 |
| 20260507104804 | 8 | 52 | 9.7 | 11.3 | 0.03 | 1.60 | 0.99 | 94 | 1011.4 |
| 20260507104504 | 8 | 52 | 9.7 | 11.3 | 0.03 | 1.60 | 0.99 | 94 | 1011.7 |
| 20260507104404 | 8 | 51 | 9.7 | 11.3 | 0.03 | 1.60 | 0.99 | 94 | 1011.6 |
| 20260507104104 | 8 | 45 | 8.0 | 14.5 | 0.05 | 1.60 | 0.99 | 94 | 1011.4 |
| 20260507104005 | 8 | 42 | 8.0 | 14.5 | 0.05 | 1.60 | 0.99 | 94 | 1011.6 |
| 20260507103904 | 8 | 40 | 8.0 | 14.5 | 0.05 | 1.60 | 0.99 | 94 | 1011.6 |
| 20260507103804 | 8 | 37 | 8.0 | 14.5 | 0.05 | 1.60 | 0.99 | 94 | 1011.5 |
| 20260507103704 | 8 | 35 | 8.0 | 14.5 | 0.05 | 1.60 | 0.99 | 94 | 1011.5 |
| 20260507103604 | 8 | 33 | 8.0 | 14.5 | 0.05 | 1.60 | 0.99 | 94 | 1011.6 |
| 20260507103504 | 8 | 31 | 8.0 | 14.5 | 0.05 | 1.60 | 0.99 | 94 | 1011.5 |
| 20260507103404 | 8 | 30 | 9.7 | 14.5 | 0.05 | 1.60 | 0.99 | 94 | 1011.6 |
| 20260507103304 | 8 | 33 | 9.7 | 14.5 | 0.05 | 1.60 | 0.99 | 94 | 1011.6 |
| 20260507103204 | 8 | 36 | 9.7 | 14.5 | 0.05 | 1.60 | 0.99 | 94 | 1011.6 |